DW9796 Weather Reports


Display with metric or nautical units.
time (UTC)temp
F
wind
direction
speed
MPH
gust
MPH
rain 1hr
in
rain 24hr
in
rain mn
in
humidity
%
barometer
mb
20240223014803 66 0 0.0 0.0 0.00 0.00 0.00 38 1010.4
20240223014702 66 0 0.0 0.0 0.00 0.00 0.00 38 1010.3
20240223014603 66 0 0.0 0.0 0.00 0.00 0.00 38 1010.3
20240223014403 66 0 0.0 0.0 0.00 0.00 0.00 36 1010.2
20240223014303 66 0 0.0 0.0 0.00 0.00 0.00 36 1010.2
20240223014203 66 0 0.0 0.0 0.00 0.00 0.00 36 1010.2
20240223014103 66 0 0.0 0.0 0.00 0.00 0.00 36 1010.3
20240223014003 66 0 0.0 0.0 0.00 0.00 0.00 39 1010.2
20240223013902 66 0 0.0 0.0 0.00 0.00 0.00 37 1010.2
20240223013803 66 0 0.0 0.0 0.00 0.00 0.00 37 1010.1
20240223013602 66 0 0.0 0.0 0.00 0.00 0.00 37 1010.1
20240223013503 67 0 0.0 0.0 0.00 0.00 0.00 37 1010.1
20240223013404 67 0 0.0 0.0 0.00 0.00 0.00 36 1010.0
20240223013303 67 0 0.0 0.0 0.00 0.00 0.00 36 1010.0
20240223013204 67 0 0.0 0.0 0.00 0.00 0.00 35 1010.0
20240223013103 68 0 0.0 0.0 0.00 0.00 0.00 35 1010.0
20240223013003 68 0 0.0 0.0 0.00 0.00 0.00 34 1010.0
20240223012903 68 0 0.0 0.0 0.00 0.00 0.00 34 1010.0
20240223012703 68 0 0.0 0.0 0.00 0.00 0.00 33 1010.0
20240223012603 68 0 0.0 0.0 0.00 0.00 0.00 36 1009.9
20240223012503 68 0 0.0 0.0 0.00 0.00 0.00 36 1009.9
20240223012403 68 0 0.0 0.0 0.00 0.00 0.00 36 1009.9
20240223012204 69 0 0.0 0.0 0.00 0.00 0.00 36 1009.8
20240223012103 69 0 0.0 0.0 0.00 0.00 0.00 33 1009.8
20240223011903 69 0 0.0 0.0 0.00 0.00 0.00 33 1009.8
20240223011803 69 0 0.0 0.0 0.00 0.00 0.00 32 1009.8
20240223011702 69 0 0.0 0.0 0.00 0.00 0.00 32 1009.8
20240223011403 70 295 0.0 2.0 0.00 0.00 0.00 32 1009.7
20240223011203 70 295 0.0 2.0 0.00 0.00 0.00 32 1009.7
20240223011003 70 295 0.0 2.0 0.00 0.00 0.00 31 1009.6
20240223010902 70 295 0.0 2.0 0.00 0.00 0.00 32 1009.6
20240223010803 70 295 0.0 2.0 0.00 0.00 0.00 30 1009.7
20240223010704 70 295 0.0 2.0 0.00 0.00 0.00 29 1009.6
20240223010503 70 295 0.0 1.0 0.00 0.00 0.00 31 1009.6
20240223010303 71 0 0.0 0.0 0.00 0.00 0.00 30 1009.6
20240223010203 71 0 0.0 0.0 0.00 0.00 0.00 30 1009.5
20240223010103 71 0 0.0 0.0 0.00 0.00 0.00 30 1009.6
20240223010003 71 0 0.0 0.0 0.00 0.00 0.00 30 1009.5
20240223005803 72 0 0.0 0.0 0.00 0.00 0.00 28 1009.5
20240223005602 72 0 0.0 0.0 0.00 0.00 0.00 28 1009.4
20240223005502 72 0 0.0 0.0 0.00 0.00 0.00 28 1009.2
20240223005403 73 0 0.0 0.0 0.00 0.00 0.00 28 1009.2
20240223005203 73 0 0.0 0.0 0.00 0.00 0.00 28 1009.2
20240223005104 73 0 0.0 0.0 0.00 0.00 0.00 26 1009.2
20240223005003 73 0 0.0 0.0 0.00 0.00 0.00 28 1009.2
20240223004903 73 0 0.0 0.0 0.00 0.00 0.00 28 1009.2
20240223004802 73 0 0.0 0.0 0.00 0.00 0.00 28 1009.2
20240223004703 73 317 0.0 1.0 0.00 0.00 0.00 28 1009.2
20240223004603 73 317 0.0 1.0 0.00 0.00 0.00 27 1009.2
20240223004403 74 315 0.0 2.0 0.00 0.00 0.00 27 1009.1
20240223004304 74 314 0.0 2.0 0.00 0.00 0.00 27 1009.1
20240223004203 74 313 0.0 2.0 0.00 0.00 0.00 27 1009.1
20240223004103 74 313 0.0 2.0 0.00 0.00 0.00 27 1009.1
20240223004003 75 313 0.0 2.0 0.00 0.00 0.00 26 1009.1
20240223003903 75 313 0.0 2.0 0.00 0.00 0.00 24 1009.1
20240223003803 75 313 0.0 2.0 0.00 0.00 0.00 24 1009.0
20240223003703 76 314 0.0 2.0 0.00 0.00 0.00 25 1009.0
20240223003603 76 313 0.0 2.0 0.00 0.00 0.00 24 1009.0
20240223003504 76 315 0.0 2.0 0.00 0.00 0.00 23 1009.0
20240223003404 76 317 0.0 2.0 0.00 0.00 0.00 23 1009.0
20240223003303 77 316 0.0 2.0 0.00 0.00 0.00 22 1009.0
20240223003204 77 317 0.0 2.0 0.00 0.00 0.00 22 1009.0
20240223003103 77 318 0.0 2.0 0.00 0.00 0.00 24 1009.0
20240223002903 77 323 0.0 2.0 0.00 0.00 0.00 24 1008.9
20240223002804 78 323 0.0 2.0 0.00 0.00 0.00 23 1008.9
20240223002703 78 320 0.0 2.0 0.00 0.00 0.00 22 1008.9
20240223002603 78 317 0.0 4.0 0.00 0.00 0.00 21 1008.9
20240223002403 79 317 0.0 4.0 0.00 0.00 0.00 21 1008.9
20240223002203 79 322 1.0 4.0 0.00 0.00 0.00 18 1008.9
20240223002104 80 324 1.0 4.0 0.00 0.00 0.00 18 1008.8
20240223002003 80 323 1.0 4.0 0.00 0.00 0.00 18 1008.8
20240223001903 80 323 1.0 4.0 0.00 0.00 0.00 19 1008.8
20240223001804 81 323 1.0 4.0 0.00 0.00 0.00 19 1008.8
20240223001703 81 323 1.0 4.0 0.00 0.00 0.00 19 1008.8
20240223001303 81 326 2.0 4.0 0.00 0.00 0.00 17 1008.7
20240223001203 81 324 2.0 4.0 0.00 0.00 0.00 17 1008.7
20240223001104 81 324 2.0 4.0 0.00 0.00 0.00 17 1008.7
20240223001003 82 324 2.0 4.0 0.00 0.00 0.00 17 1008.8
20240223000903 82 325 2.0 4.0 0.00 0.00 0.00 17 1008.7
20240223000804 82 325 2.0 4.0 0.00 0.00 0.00 17 1008.7
20240223000703 82 326 2.0 4.0 0.00 0.00 0.00 17 1008.8
20240223000603 82 327 2.0 6.0 0.00 0.00 0.00 17 1008.8
20240223000503 82 326 2.0 6.0 0.00 0.00 0.00 17 1008.8
20240223000403 82 323 2.0 8.0 0.00 0.00 0.00 17 1008.8
20240223000303 82 318 2.0 8.0 0.00 0.00 0.00 17 1008.8
20240223000103 83 317 2.0 8.0 0.00 0.00 0.00 16 1008.8
20240222235903 83 316 2.0 8.0 0.00 0.00 0.00 16 1008.7
20240222235803 83 317 2.0 8.0 0.00 0.00 0.00 15 1008.7
20240222235603 83 315 2.0 8.0 0.00 0.00 0.00 16 1008.6
20240222235504 83 316 2.0 8.0 0.00 0.00 0.00 15 1008.5
20240222235403 83 317 2.0 7.0 0.00 0.00 0.00 15 1008.6
20240222235305 83 318 2.0 8.0 0.00 0.00 0.00 16 1008.6
20240222235203 84 317 2.0 8.0 0.00 0.00 0.00 15 1008.5
20240222235103 84 318 3.0 8.0 0.00 0.00 0.00 15 1008.5
20240222235003 84 316 3.0 8.0 0.00 0.00 0.00 15 1008.4
20240222234904 84 317 3.0 8.0 0.00 0.00 0.00 15 1008.5
20240222234703 84 313 4.0 10.0 0.00 0.00 0.00 15 1008.4
20240222234603 84 312 4.0 10.0 0.00 0.00 0.00 15 1008.5
20240222234503 84 311 5.0 11.0 0.00 0.00 0.00 15 1008.4
20240222234403 84 311 5.0 11.0 0.00 0.00 0.00 14 1008.4
20240222234303 84 312 5.0 11.0 0.00 0.00 0.00 14 1008.3
20240222234203 85 314 5.0 11.0 0.00 0.00 0.00 14 1008.4
20240222234103 85 313 5.0 11.0 0.00 0.00 0.00 14 1008.3
20240222234003 85 313 5.0 11.0 0.00 0.00 0.00 14 1008.3
20240222233903 85 312 5.0 11.0 0.00 0.00 0.00 15 1008.4
20240222233803 85 313 5.0 11.0 0.00 0.00 0.00 15 1008.4
20240222233703 85 314 5.0 11.0 0.00 0.00 0.00 15 1008.3
20240222233603 85 315 4.0 11.0 0.00 0.00 0.00 14 1008.3
20240222233504 85 317 4.0 10.0 0.00 0.00 0.00 14 1008.2
20240222233403 85 318 4.0 10.0 0.00 0.00 0.00 14 1008.2
20240222233303 85 318 4.0 10.0 0.00 0.00 0.00 14 1008.3
20240222233203 85 316 4.0 9.0 0.00 0.00 0.00 14 1008.3
20240222233003 85 319 4.0 9.0 0.00 0.00 0.00 15 1008.3
20240222232903 85 320 3.0 9.0 0.00 0.00 0.00 15 1008.3
20240222232803 85 319 4.0 9.0 0.00 0.00 0.00 15 1008.3
20240222232703 85 318 4.0 9.0 0.00 0.00 0.00 15 1008.2
20240222232604 85 318 4.0 9.0 0.00 0.00 0.00 14 1008.2
20240222232503 85 317 4.0 9.0 0.00 0.00 0.00 14 1008.2
20240222232403 85 320 4.0 10.0 0.00 0.00 0.00 14 1008.2
20240222232306 85 321 4.0 10.0 0.00 0.00 0.00 14 1008.2
20240222232204 85 324 5.0 10.0 0.00 0.00 0.00 14 1008.2
20240222232103 86 326 4.0 12.0 0.00 0.00 0.00 14 1008.2
20240222232003 86 327 4.0 12.0 0.00 0.00 0.00 14 1008.2
20240222231903 86 327 4.0 12.0 0.00 0.00 0.00 14 1008.2
20240222231803 85 330 4.0 12.0 0.00 0.00 0.00 14 1008.1
20240222231703 85 332 4.0 12.0 0.00 0.00 0.00 14 1008.1
20240222231604 85 335 4.0 12.0 0.00 0.00 0.00 15 1008.2
20240222231503 86 334 4.0 12.0 0.00 0.00 0.00 15 1008.2
20240222231403 85 331 4.0 12.0 0.00 0.00 0.00 15 1008.1
20240222231304 86 333 4.0 12.0 0.00 0.00 0.00 15 1008.3
20240222231103 86 328 4.0 10.0 0.00 0.00 0.00 14 1008.0
20240222231003 86 326 4.0 10.0 0.00 0.00 0.00 14 1008.0
20240222230903 86 325 4.0 10.0 0.00 0.00 0.00 15 1008.0
20240222230803 86 324 4.0 10.0 0.00 0.00 0.00 16 1008.0
20240222230703 86 322 4.0 10.0 0.00 0.00 0.00 15 1008.0
20240222230602 86 321 4.0 10.0 0.00 0.00 0.00 15 1008.0
20240222230503 86 319 3.0 10.0 0.00 0.00 0.00 15 1008.0
20240222230403 86 321 3.0 10.0 0.00 0.00 0.00 15 1008.0
20240222230203 86 324 4.0 10.0 0.00 0.00 0.00 14 1008.0
20240222230103 86 326 4.0 10.0 0.00 0.00 0.00 14 1008.0
20240222230003 86 327 4.0 10.0 0.00 0.00 0.00 15 1008.0
20240222225903 86 328 4.0 10.0 0.00 0.00 0.00 16 1008.0
20240222225804 86 328 4.0 10.0 0.00 0.00 0.00 16 1008.0
20240222225703 86 329 4.0 10.0 0.00 0.00 0.00 15 1008.0
20240222225603 86 328 4.0 10.0 0.00 0.00 0.00 15 1008.0
20240222225503 86 329 4.0 10.0 0.00 0.00 0.00 15 1008.0
20240222225403 86 326 4.0 10.0 0.00 0.00 0.00 15 1008.0
20240222225305 86 323 4.0 10.0 0.00 0.00 0.00 14 1007.9
20240222225204 86 318 4.0 9.0 0.00 0.00 0.00 14 1008.0
20240222225103 86 316 4.0 9.0 0.00 0.00 0.00 14 1008.0
20240222224903 86 313 4.0 9.0 0.00 0.00 0.00 15 1008.0
20240222224803 86 313 4.0 9.0 0.00 0.00 0.00 15 1008.0
20240222224703 86 313 4.0 9.0 0.00 0.00 0.00 15 1008.1
20240222224603 86 311 4.0 9.0 0.00 0.00 0.00 13 1008.0
20240222224504 86 310 4.0 9.0 0.00 0.00 0.00 13 1008.0
20240222224403 86 309 4.0 10.0 0.00 0.00 0.00 14 1008.0
20240222224204 86 311 4.0 10.0 0.00 0.00 0.00 14 1008.1
20240222224003 86 316 5.0 10.0 0.00 0.00 0.00 15 1008.0
20240222223904 86 319 5.0 10.0 0.00 0.00 0.00 15 1008.0
20240222223703 86 321 4.0 12.0 0.00 0.00 0.00 14 1008.0
20240222223503 86 324 4.0 12.0 0.00 0.00 0.00 17 1008.0
20240222223403 86 326 5.0 12.0 0.00 0.00 0.00 16 1008.0
20240222223203 86 329 4.0 12.0 0.00 0.00 0.00 15 1007.9
20240222222903 87 325 4.0 12.0 0.00 0.00 0.00 16 1008.0
20240222222804 87 327 4.0 9.0 0.00 0.00 0.00 16 1008.0
20240222222702 86 326 4.0 9.0 0.00 0.00 0.00 16 1008.0
20240222222603 86 328 4.0 9.0 0.00 0.00 0.00 16 1007.9
20240222222503 86 326 4.0 9.0 0.00 0.00 0.00 17 1007.9
20240222222203 87 315 4.0 11.0 0.00 0.00 0.00 17 1007.9
20240222222103 87 317 4.0 11.0 0.00 0.00 0.00 17 1007.9
20240222221903 87 311 4.0 11.0 0.00 0.00 0.00 17 1007.8
20240222221803 87 307 4.0 11.0 0.00 0.00 0.00 18 1007.9
20240222221603 87 313 5.0 11.0 0.00 0.00 0.00 18 1007.9
20240222221503 87 316 5.0 11.0 0.00 0.00 0.00 18 1007.9
20240222221404 87 320 5.0 11.0 0.00 0.00 0.00 16 1007.8
20240222221203 87 326 5.0 11.0 0.00 0.00 0.00 18 1007.9
20240222221103 87 324 5.0 11.0 0.00 0.00 0.00 16 1007.9
20240222220903 87 330 5.0 11.0 0.00 0.00 0.00 18 1007.9
20240222220804 87 331 5.0 11.0 0.00 0.00 0.00 18 1008.0
20240222220703 86 330 5.0 11.0 0.00 0.00 0.00 18 1007.9
20240222220603 86 328 5.0 10.0 0.00 0.00 0.00 18 1007.9
20240222220503 86 325 5.0 12.0 0.00 0.00 0.00 18 1007.9
20240222220403 86 326 6.0 12.0 0.00 0.00 0.00 18 1007.9
20240222220303 86 328 5.0 12.0 0.00 0.00 0.00 18 1007.9
20240222220203 86 326 6.0 12.0 0.00 0.00 0.00 21 1007.9
20240222220103 86 327 6.0 12.0 0.00 0.00 0.00 19 1007.9
20240222220005 86 326 6.0 12.0 0.00 0.00 0.00 20 1007.9
20240222215903 86 327 6.0 12.0 0.00 0.00 0.00 19 1007.9
20240222215804 86 326 6.0 12.0 0.00 0.00 0.00 19 1007.9
20240222215503 86 333 5.0 12.0 0.00 0.00 0.00 19 1007.9
20240222215403 86 335 5.0 12.0 0.00 0.00 0.00 20 1007.9
20240222215204 87 337 5.0 10.0 0.00 0.00 0.00 20 1007.9
20240222215103 87 339 6.0 10.0 0.00 0.00 0.00 20 1007.9
20240222215004 86 342 5.0 10.0 0.00 0.00 0.00 22 1007.9
20240222214903 86 338 5.0 10.0 0.00 0.00 0.00 20 1007.9
20240222214803 86 339 5.0 10.0 0.00 0.00 0.00 20 1007.9
20240222214703 86 340 5.0 10.0 0.00 0.00 0.00 20 1007.9
20240222214604 86 338 5.0 10.0 0.00 0.00 0.00 20 1007.9
20240222214503 86 333 5.0 11.0 0.00 0.00 0.00 20 1007.8
20240222214403 86 329 4.0 11.0 0.00 0.00 0.00 20 1007.9
20240222214303 87 326 5.0 11.0 0.00 0.00 0.00 19 1007.9
20240222214202 87 324 5.0 15.0 0.00 0.00 0.00 22 1007.9
20240222213903 87 323 5.0 15.0 0.00 0.00 0.00 21 1007.9
20240222213803 87 325 6.0 15.0 0.00 0.00 0.00 21 1008.0
20240222213604 87 323 6.0 15.0 0.00 0.00 0.00 19 1007.9
20240222213503 87 325 7.0 15.0 0.00 0.00 0.00 20 1007.9
20240222213404 87 325 7.0 15.0 0.00 0.00 0.00 20 1008.0
20240222213303 87 324 7.0 15.0 0.00 0.00 0.00 21 1008.1
20240222213103 87 321 7.0 15.0 0.00 0.00 0.00 21 1008.0
20240222213003 87 321 7.0 15.0 0.00 0.00 0.00 20 1008.0
20240222212903 87 324 7.0 15.0 0.00 0.00 0.00 19 1008.0
20240222212804 87 319 7.0 15.0 0.00 0.00 0.00 20 1008.0
20240222212703 87 318 6.0 15.0 0.00 0.00 0.00 19 1008.0
20240222212603 87 320 6.0 13.0 0.00 0.00 0.00 19 1008.0
20240222212503 87 320 6.0 13.0 0.00 0.00 0.00 19 1008.0
20240222212403 87 321 5.0 13.0 0.00 0.00 0.00 19 1008.0
20240222212306 87 324 5.0 12.0 0.00 0.00 0.00 19 1008.0
20240222212202 87 328 5.0 12.0 0.00 0.00 0.00 21 1008.0
20240222212103 87 330 6.0 11.0 0.00 0.00 0.00 21 1008.0
20240222212004 87 330 5.0 11.0 0.00 0.00 0.00 21 1008.1
20240222211803 87 331 6.0 11.0 0.00 0.00 0.00 21 1008.1
20240222211703 87 333 6.0 17.0 0.00 0.00 0.00 19 1008.2
20240222211603 87 332 6.0 17.0 0.00 0.00 0.00 20 1008.2
20240222211503 87 332 6.0 17.0 0.00 0.00 0.00 20 1008.2
20240222211403 87 331 6.0 17.0 0.00 0.00 0.00 19 1008.2
20240222211304 87 331 5.0 17.0 0.00 0.00 0.00 19 1008.1
20240222211203 87 330 5.0 17.0 0.00 0.00 0.00 19 1008.2
20240222211103 87 328 5.0 17.0 0.00 0.00 0.00 19 1008.2
20240222211003 87 328 5.0 17.0 0.00 0.00 0.00 19 1008.2
20240222210804 88 333 4.0 17.0 0.00 0.00 0.00 19 1008.2
20240222210704 88 332 4.0 14.0 0.00 0.00 0.00 19 1008.2
20240222210504 87 336 4.0 11.0 0.00 0.00 0.00 19 1008.1
20240222210203 88 334 4.0 11.0 0.00 0.00 0.00 21 1008.2
20240222210103 87 336 4.0 11.0 0.00 0.00 0.00 19 1008.3
20240222205903 88 329 4.0 11.0 0.00 0.00 0.00 19 1008.2
20240222205803 88 329 4.0 11.0 0.00 0.00 0.00 20 1008.2
20240222205603 88 335 4.0 10.0 0.00 0.00 0.00 20 1008.2
20240222205503 88 329 4.0 10.0 0.00 0.00 0.00 19 1008.3
20240222205306 87 332 5.0 12.0 0.00 0.00 0.00 20 1008.4
20240222205203 87 337 5.0 12.0 0.00 0.00 0.00 20 1008.4
20240222205103 87 336 5.0 12.0 0.00 0.00 0.00 20 1008.4
20240222205004 87 340 5.0 12.0 0.00 0.00 0.00 20 1008.3
20240222204903 87 342 6.0 12.0 0.00 0.00 0.00 21 1008.2
20240222204804 87 340 6.0 12.0 0.00 0.00 0.00 19 1008.2
20240222204704 87 338 6.0 12.0 0.00 0.00 0.00 19 1008.3
20240222204604 87 335 6.0 12.0 0.00 0.00 0.00 19 1008.3
20240222204503 87 340 6.0 13.0 0.00 0.00 0.00 20 1008.3
20240222204403 87 337 6.0 13.0 0.00 0.00 0.00 21 1008.3
20240222204304 87 340 6.0 13.0 0.00 0.00 0.00 19 1008.3
20240222204203 87 338 6.0 13.0 0.00 0.00 0.00 20 1008.3
20240222204103 87 342 6.0 13.0 0.00 0.00 0.00 21 1008.3
20240222204003 86 343 7.0 13.0 0.00 0.00 0.00 21 1008.3
20240222203903 86 342 7.0 13.0 0.00 0.00 0.00 21 1008.3
20240222203802 86 342 7.0 13.0 0.00 0.00 0.00 20 1008.2
20240222203704 86 344 7.0 13.0 0.00 0.00 0.00 20 1008.3
20240222203603 86 343 7.0 13.0 0.00 0.00 0.00 20 1008.3
20240222203503 86 342 7.0 13.0 0.00 0.00 0.00 21 1008.3
20240222203403 86 342 7.0 13.0 0.00 0.00 0.00 21 1008.2
20240222203303 86 341 7.0 13.0 0.00 0.00 0.00 21 1008.3
20240222203104 86 336 6.0 12.0 0.00 0.00 0.00 20 1008.3
20240222203003 86 333 6.0 12.0 0.00 0.00 0.00 20 1008.3
20240222202903 86 335 6.0 12.0 0.00 0.00 0.00 20 1008.3
20240222202803 86 331 6.0 12.0 0.00 0.00 0.00 20 1008.4
20240222202703 86 328 5.0 12.0 0.00 0.00 0.00 22 1008.3
20240222202603 87 328 5.0 12.0 0.00 0.00 0.00 21 1008.4
20240222202504 87 324 5.0 12.0 0.00 0.00 0.00 21 1008.4
20240222202403 87 322 5.0 12.0 0.00 0.00 0.00 23 1008.4
20240222202305 87 315 4.0 12.0 0.00 0.00 0.00 23 1008.4
20240222202203 86 308 4.0 12.0 0.00 0.00 0.00 22 1008.4
20240222202004 86 306 4.0 12.0 0.00 0.00 0.00 24 1008.4
20240222201903 86 302 3.0 12.0 0.00 0.00 0.00 27 1008.5
20240222201803 86 301 3.0 12.0 0.00 0.00 0.00 30 1008.5
20240222201703 86 298 3.0 12.0 0.00 0.00 0.00 30 1008.5
20240222201603 86 297 3.0 12.0 0.00 0.00 0.00 28 1008.5
20240222201403 86 294 3.0 12.0 0.00 0.00 0.00 30 1008.5
20240222201303 85 287 3.0 11.0 0.00 0.00 0.00 30 1008.5
20240222201104 85 291 4.0 11.0 0.00 0.00 0.00 29 1008.5
20240222201004 85 289 4.0 11.0 0.00 0.00 0.00 31 1008.6
20240222200903 85 291 4.0 11.0 0.00 0.00 0.00 29 1008.5
20240222200803 85 295 5.0 11.0 0.00 0.00 0.00 30 1008.6
20240222200703 85 302 5.0 11.0 0.00 0.00 0.00 29 1008.7
20240222200504 85 303 5.0 11.0 0.00 0.00 0.00 30 1008.7
20240222200303 85 307 5.0 11.0 0.00 0.00 0.00 29 1008.7
20240222200204 85 309 5.0 11.0 0.00 0.00 0.00 30 1008.7
20240222200103 85 309 4.0 11.0 0.00 0.00 0.00 30 1008.8
20240222200004 85 309 4.0 11.0 0.00 0.00 0.00 30 1008.9
20240222195903 85 309 4.0 11.0 0.00 0.00 0.00 30 1008.8
20240222195803 85 307 3.0 10.0 0.00 0.00 0.00 31 1008.8
20240222195703 85 304 3.0 10.0 0.00 0.00 0.00 32 1008.8
20240222195603 85 303 3.0 10.0 0.00 0.00 0.00 31 1008.7
20240222195503 85 305 2.0 10.0 0.00 0.00 0.00 31 1008.7
20240222195403 84 298 2.0 10.0 0.00 0.00 0.00 34 1008.7
20240222195203 84 292 2.0 5.0 0.00 0.00 0.00 37 1008.8
20240222195104 84 294 2.0 5.0 0.00 0.00 0.00 37 1008.8
20240222195003 84 287 2.0 6.0 0.00 0.00 0.00 40 1008.8
20240222194803 84 283 2.0 6.0 0.00 0.00 0.00 45 1008.9
20240222194604 83 287 2.0 7.0 0.00 0.00 0.00 43 1008.9
20240222194504 83 284 2.0 7.0 0.00 0.00 0.00 41 1009.0
20240222194403 83 284 2.0 7.0 0.00 0.00 0.00 41 1009.0
20240222194303 83 281 2.0 7.0 0.00 0.00 0.00 41 1009.0
20240222194203 83 288 2.0 7.0 0.00 0.00 0.00 41 1009.0
20240222194104 83 293 2.0 7.0 0.00 0.00 0.00 43 1009.0
20240222193904 83 323 3.0 8.0 0.00 0.00 0.00 42 1009.1
20240222193803 82 327 3.0 8.0 0.00 0.00 0.00 42 1009.1
20240222193703 82 329 3.0 8.0 0.00 0.00 0.00 44 1009.1
20240222193603 82 334 3.0 8.0 0.00 0.00 0.00 43 1009.1
20240222193304 82 343 4.0 8.0 0.00 0.00 0.00 44 1009.2
20240222193203 82 343 4.0 9.0 0.00 0.00 0.00 45 1009.2
20240222193103 82 342 4.0 9.0 0.00 0.00 0.00 46 1009.2
20240222193003 82 339 4.0 9.0 0.00 0.00 0.00 42 1009.2
20240222192903 82 330 4.0 9.0 0.00 0.00 0.00 45 1009.3
20240222192703 82 311 3.0 9.0 0.00 0.00 0.00 44 1009.3
20240222192603 82 299 3.0 9.0 0.00 0.00 0.00 44 1009.3
20240222192306 82 286 3.0 9.0 0.00 0.00 0.00 47 1009.5
20240222192203 81 284 3.0 8.0 0.00 0.00 0.00 46 1009.4
20240222192104 81 278 2.0 8.0 0.00 0.00 0.00 47 1009.4
20240222192003 81 270 2.0 8.0 0.00 0.00 0.00 49 1009.5
20240222191903 81 276 2.0 8.0 0.00 0.00 0.00 49 1009.5
20240222191803 81 282 2.0 8.0 0.00 0.00 0.00 50 1009.6
20240222191703 80 290 2.0 8.0 0.00 0.00 0.00 49 1009.6
20240222191503 80 305 2.0 8.0 0.00 0.00 0.00 49 1009.6
20240222191403 80 299 2.0 8.0 0.00 0.00 0.00 49 1009.7
20240222191303 80 294 1.0 8.0 0.00 0.00 0.00 55 1009.7
20240222191204 80 287 1.0 3.0 0.00 0.00 0.00 55 1009.7
20240222191103 80 290 1.0 3.0 0.00 0.00 0.00 53 1009.7
20240222191004 80 286 1.0 4.0 0.00 0.00 0.00 57 1009.8
20240222190803 79 277 2.0 6.0 0.00 0.00 0.00 58 1009.8
20240222190703 79 267 2.0 6.0 0.00 0.00 0.00 56 1009.8
20240222190603 79 258 2.0 10.0 0.00 0.00 0.00 56 1009.8
20240222190404 78 250 3.0 10.0 0.00 0.00 0.00 57 1009.9
20240222190304 78 248 3.0 10.0 0.00 0.00 0.00 58 1009.9
20240222190203 78 248 3.0 10.0 0.00 0.00 0.00 58 1010.0
20240222190004 78 247 3.0 10.0 0.00 0.00 0.00 58 1010.1
20240222185903 78 243 3.0 10.0 0.00 0.00 0.00 58 1010.0
20240222185802 78 240 2.0 10.0 0.00 0.00 0.00 57 1010.1
20240222185704 78 246 2.0 10.0 0.00 0.00 0.00 56 1010.1
20240222185603 78 254 2.0 8.0 0.00 0.00 0.00 60 1010.2
20240222185504 78 266 2.0 8.0 0.00 0.00 0.00 60 1010.2
20240222185403 78 267 2.0 8.0 0.00 0.00 0.00 60 1010.2
20240222185306 78 270 2.0 5.0 0.00 0.00 0.00 60 1010.2
20240222185204 78 280 2.0 6.0 0.00 0.00 0.00 60 1010.2
20240222185103 77 285 2.0 6.0 0.00 0.00 0.00 61 1010.2
20240222185003 77 278 2.0 7.0 0.00 0.00 0.00 61 1010.3
20240222184903 77 278 2.0 7.0 0.00 0.00 0.00 60 1010.3
20240222184803 77 270 2.0 7.0 0.00 0.00 0.00 60 1010.4
20240222184703 77 268 2.0 7.0 0.00 0.00 0.00 60 1010.4
20240222184603 77 264 2.0 7.0 0.00 0.00 0.00 64 1010.5
20240222184503 77 258 2.0 7.0 0.00 0.00 0.00 64 1010.5
20240222184303 76 271 2.0 7.0 0.00 0.00 0.00 62 1010.6
20240222184104 76 281 2.0 7.0 0.00 0.00 0.00 61 1010.6
20240222184003 77 287 2.0 7.0 0.00 0.00 0.00 61 1010.7
20240222183903 77 288 2.0 7.0 0.00 0.00 0.00 61 1010.7
20240222183804 77 290 2.0 7.0 0.00 0.00 0.00 63 1010.7
20240222183703 77 283 2.0 8.0 0.00 0.00 0.00 62 1010.7
20240222183603 77 283 2.0 8.0 0.00 0.00 0.00 64 1010.8
20240222183503 76 280 2.0 8.0 0.00 0.00 0.00 63 1010.7
20240222183403 76 279 2.0 8.0 0.00 0.00 0.00 62 1010.8
20240222183303 76 272 2.0 8.0 0.00 0.00 0.00 65 1010.9
20240222183203 76 270 2.0 8.0 0.00 0.00 0.00 63 1010.8
20240222183104 76 266 2.0 8.0 0.00 0.00 0.00 64 1010.9
20240222183003 76 262 2.0 8.0 0.00 0.00 0.00 62 1010.9
20240222182903 76 258 2.0 8.0 0.00 0.00 0.00 64 1010.9
20240222182803 76 259 2.0 8.0 0.00 0.00 0.00 64 1010.9
20240222182703 76 248 2.0 5.0 0.00 0.00 0.00 64 1010.9
20240222182603 76 246 2.0 5.0 0.00 0.00 0.00 64 1010.9
20240222182403 76 258 2.0 6.0 0.00 0.00 0.00 65 1010.9
20240222182306 76 253 2.0 6.0 0.00 0.00 0.00 66 1011.0
20240222182203 76 232 2.0 6.0 0.00 0.00 0.00 65 1011.0
20240222182003 75 225 2.0 6.0 0.00 0.00 0.00 65 1011.0
20240222181803 75 220 2.0 6.0 0.00 0.00 0.00 66 1011.1
20240222181703 75 231 2.0 6.0 0.00 0.00 0.00 66 1011.1
20240222181604 76 236 2.0 6.0 0.00 0.00 0.00 65 1011.1
20240222181503 76 226 2.0 5.0 0.00 0.00 0.00 68 1011.3
20240222181403 75 230 2.0 5.0 0.00 0.00 0.00 64 1011.2
20240222181303 75 233 2.0 5.0 0.00 0.00 0.00 64 1011.3
20240222181204 75 248 2.0 5.0 0.00 0.00 0.00 65 1011.4
20240222181104 75 255 2.0 8.0 0.00 0.00 0.00 65 1011.4
20240222181003 75 256 3.0 8.0 0.00 0.00 0.00 65 1011.3
20240222180903 74 259 3.0 8.0 0.00 0.00 0.00 65 1011.4
20240222180803 74 265 2.0 8.0 0.00 0.00 0.00 69 1011.4
20240222180704 74 267 3.0 8.0 0.00 0.00 0.00 67 1011.4
20240222180603 74 255 3.0 8.0 0.00 0.00 0.00 67 1011.4
20240222180503 74 251 3.0 8.0 0.00 0.00 0.00 68 1011.5
20240222180403 74 249 3.0 8.0 0.00 0.00 0.00 68 1011.5
20240222180303 74 245 2.0 8.0 0.00 0.00 0.00 68 1011.5
20240222180102 74 243 2.0 7.0 0.00 0.00 0.00 67 1011.6
20240222180003 74 252 2.0 7.0 0.00 0.00 0.00 67 1011.6
20240222175904 74 253 2.0 7.0 0.00 0.00 0.00 69 1011.6
20240222175804 74 258 2.0 5.0 0.00 0.00 0.00 68 1011.6
20240222175703 74 264 2.0 5.0 0.00 0.00 0.00 68 1011.7
20240222175604 74 275 2.0 5.0 0.00 0.00 0.00 68 1011.7
20240222175403 73 258 2.0 5.0 0.00 0.00 0.00 70 1011.8
20240222175203 73 257 2.0 5.0 0.00 0.00 0.00 70 1011.7
20240222175103 73 258 2.0 5.0 0.00 0.00 0.00 69 1011.7
20240222175003 73 257 2.0 5.0 0.00 0.00 0.00 71 1011.7
20240222174903 73 253 2.0 5.0 0.00 0.00 0.00 72 1011.6
20240222174803 73 255 2.0 6.0 0.00 0.00 0.00 72 1011.6
20240222174703 73 259 2.0 6.0 0.00 0.00 0.00 70 1011.7
20240222174604 73 262 2.0 6.0 0.00 0.00 0.00 69 1011.7
20240222174503 73 277 2.0 6.0 0.00 0.00 0.00 69 1011.8
20240222174403 73 290 2.0 6.0 0.00 0.00 0.00 71 1011.8
20240222174203 73 289 2.0 6.0 0.00 0.00 0.00 70 1011.8
20240222174103 73 284 2.0 6.0 0.00 0.00 0.00 72 1011.9
20240222173903 73 272 2.0 6.0 0.00 0.00 0.00 72 1011.9
20240222173803 72 268 2.0 6.0 0.00 0.00 0.00 72 1011.9
20240222173704 72 262 2.0 6.0 0.00 0.00 0.00 74 1012.0
20240222173603 72 261 2.0 6.0 0.00 0.00 0.00 71 1012.0
20240222173504 72 257 2.0 6.0 0.00 0.00 0.00 71 1012.0
20240222173403 72 259 2.0 6.0 0.00 0.00 0.00 71 1011.9
20240222173303 72 267 2.0 6.0 0.00 0.00 0.00 72 1012.0
20240222173203 72 270 2.0 6.0 0.00 0.00 0.00 72 1012.1
20240222173003 72 289 2.0 6.0 0.00 0.00 0.00 75 1012.1
20240222172803 72 295 2.0 4.0 0.00 0.00 0.00 73 1012.0
20240222172703 72 300 2.0 5.0 0.00 0.00 0.00 73 1012.0
20240222172603 72 300 2.0 5.0 0.00 0.00 0.00 73 1012.1
20240222172504 72 300 2.0 5.0 0.00 0.00 0.00 73 1012.0
20240222172403 72 294 2.0 5.0 0.00 0.00 0.00 73 1012.0
20240222172306 72 293 3.0 5.0 0.00 0.00 0.00 73 1012.0
20240222172203 72 297 3.0 5.0 0.00 0.00 0.00 74 1012.0
20240222172003 72 295 2.0 5.0 0.00 0.00 0.00 73 1012.1
20240222171903 72 301 3.0 6.0 0.00 0.00 0.00 74 1012.1
20240222171802 72 303 3.0 7.0 0.00 0.00 0.00 72 1012.0
20240222171703 71 303 3.0 7.0 0.00 0.00 0.00 73 1012.0
20240222171503 72 303 3.0 7.0 0.00 0.00 0.00 75 1012.0
20240222171403 72 306 3.0 8.0 0.00 0.00 0.00 75 1012.0
20240222171304 71 309 3.0 8.0 0.00 0.00 0.00 75 1012.1
20240222171103 71 299 3.0 8.0 0.00 0.00 0.00 77 1012.1
20240222171003 71 293 3.0 8.0 0.00 0.00 0.00 73 1012.1
20240222170904 71 284 3.0 8.0 0.00 0.00 0.00 73 1012.2
20240222170703 71 253 3.0 8.0 0.00 0.00 0.00 73 1012.2
20240222170603 72 229 3.0 9.0 0.00 0.00 0.00 73 1012.1
20240222170403 72 218 3.0 9.0 0.00 0.00 0.00 75 1012.1
20240222170303 71 215 3.0 9.0 0.00 0.00 0.00 76 1012.1
20240222170203 71 210 3.0 9.0 0.00 0.00 0.00 77 1012.2
20240222170003 71 215 3.0 9.0 0.00 0.00 0.00 76 1012.1
20240222165903 70 220 3.0 9.0 0.00 0.00 0.00 76 1012.1
20240222165804 71 229 3.0 9.0 0.00 0.00 0.00 76 1012.2
20240222165703 70 239 2.0 9.0 0.00 0.00 0.00 76 1012.2
20240222165504 70 255 2.0 6.0 0.00 0.00 0.00 77 1012.3
20240222165403 70 258 3.0 6.0 0.00 0.00 0.00 76 1012.3
20240222165203 70 257 3.0 6.0 0.00 0.00 0.00 76 1012.3
20240222165103 70 256 3.0 6.0 0.00 0.00 0.00 77 1012.3
20240222165003 70 254 3.0 7.0 0.00 0.00 0.00 78 1012.2
20240222164903 70 252 3.0 7.0 0.00 0.00 0.00 77 1012.2
20240222164803 70 248 2.0 7.0 0.00 0.00 0.00 78 1012.2
20240222164703 70 244 2.0 7.0 0.00 0.00 0.00 78 1012.2
20240222164603 70 245 2.0 7.0 0.00 0.00 0.00 78 1012.2
20240222164503 70 246 2.0 7.0 0.00 0.00 0.00 77 1012.2
20240222164404 70 247 2.0 7.0 0.00 0.00 0.00 77 1012.2
20240222164304 70 248 2.0 7.0 0.00 0.00 0.00 77 1012.2
20240222164203 70 249 2.0 7.0 0.00 0.00 0.00 77 1012.2
20240222164003 70 244 2.0 6.0 0.00 0.00 0.00 77 1012.2
20240222163903 70 244 2.0 6.0 0.00 0.00 0.00 79 1012.2
20240222163804 69 246 2.0 6.0 0.00 0.00 0.00 79 1012.1
20240222163703 69 247 2.0 6.0 0.00 0.00 0.00 77 1012.1
20240222163503 70 247 2.0 6.0 0.00 0.00 0.00 78 1012.1
20240222163403 70 251 2.0 6.0 0.00 0.00 0.00 77 1012.1
20240222163203 70 249 2.0 6.0 0.00 0.00 0.00 78 1012.1
20240222163103 70 248 2.0 6.0 0.00 0.00 0.00 78 1012.0
20240222163003 70 251 2.0 6.0 0.00 0.00 0.00 78 1012.0
20240222162803 70 256 1.0 6.0 0.00 0.00 0.00 78 1012.0
20240222162703 70 256 1.0 6.0 0.00 0.00 0.00 78 1012.0
20240222162603 69 251 1.0 4.0 0.00 0.00 0.00 77 1012.0
20240222162502 69 248 1.0 4.0 0.00 0.00 0.00 77 1011.9
20240222162404 69 241 1.0 4.0 0.00 0.00 0.00 79 1011.9
20240222162305 69 245 1.0 4.0 0.00 0.00 0.00 79 1011.9
20240222162103 69 246 1.0 4.0 0.00 0.00 0.00 79 1012.0
20240222162003 69 253 2.0 8.0 0.00 0.00 0.00 79 1012.1
20240222161904 69 258 2.0 8.0 0.00 0.00 0.00 79 1012.1
20240222161803 69 264 2.0 8.0 0.00 0.00 0.00 78 1012.1
20240222161703 69 268 2.0 8.0 0.00 0.00 0.00 79 1012.2
20240222161604 69 270 2.0 8.0 0.00 0.00 0.00 78 1012.1
20240222161503 69 271 2.0 8.0 0.00 0.00 0.00 79 1012.2
20240222161403 69 272 2.0 8.0 0.00 0.00 0.00 80 1012.3
20240222161303 69 272 2.0 8.0 0.00 0.00 0.00 79 1012.2
20240222161204 69 271 2.0 8.0 0.00 0.00 0.00 79 1012.2
20240222161104 69 271 2.0 8.0 0.00 0.00 0.00 79 1012.2
20240222160903 69 270 2.0 7.0 0.00 0.00 0.00 79 1012.1
20240222160603 69 258 1.0 6.0 0.00 0.00 0.00 80 1012.2
20240222160503 69 260 1.0 6.0 0.00 0.00 0.00 80 1012.2
20240222160403 69 261 1.0 6.0 0.00 0.00 0.00 80 1012.2
20240222160303 69 261 1.0 6.0 0.00 0.00 0.00 81 1012.2
20240222160204 68 254 1.0 6.0 0.00 0.00 0.00 81 1012.2
20240222160103 68 249 1.0 6.0 0.00 0.00 0.00 81 1012.3
20240222155904 68 232 1.0 5.0 0.00 0.00 0.00 81 1012.2
20240222155803 69 219 2.0 5.0 0.00 0.00 0.00 81 1012.2
20240222155703 69 213 2.0 8.0 0.00 0.00 0.00 81 1012.1
20240222155603 69 212 2.0 8.0 0.00 0.00 0.00 81 1012.1
20240222155503 68 208 2.0 8.0 0.00 0.00 0.00 81 1012.1
20240222155403 68 206 2.0 8.0 0.00 0.00 0.00 81 1012.0
20240222155305 68 205 2.0 8.0 0.00 0.00 0.00 81 1012.1
20240222155203 69 201 2.0 8.0 0.00 0.00 0.00 80 1012.1
20240222155104 69 204 2.0 8.0 0.00 0.00 0.00 81 1012.0
20240222155004 69 206 1.0 8.0 0.00 0.00 0.00 81 1012.0
20240222154903 69 211 1.0 8.0 0.00 0.00 0.00 81 1012.0
20240222154803 68 216 1.0 8.0 0.00 0.00 0.00 81 1012.0
20240222154703 68 222 1.0 4.0 0.00 0.00 0.00 81 1012.0
20240222154604 68 221 1.0 4.0 0.00 0.00 0.00 82 1012.0
20240222154504 68 222 1.0 3.0 0.00 0.00 0.00 82 1012.1
20240222154304 68 236 2.0 4.0 0.00 0.00 0.00 83 1012.1
20240222154203 67 233 2.0 4.0 0.00 0.00 0.00 83 1012.2
20240222154003 67 230 2.0 5.0 0.00 0.00 0.00 83 1012.2
20240222153904 67 227 2.0 5.0 0.00 0.00 0.00 83 1012.2
20240222153803 67 229 2.0 5.0 0.00 0.00 0.00 83 1012.2
20240222153703 67 232 2.0 5.0 0.00 0.00 0.00 83 1012.2
20240222153603 67 235 2.0 5.0 0.00 0.00 0.00 84 1012.2
20240222153503 67 236 2.0 5.0 0.00 0.00 0.00 83 1012.2
20240222153404 67 230 1.0 5.0 0.00 0.00 0.00 84 1012.3
20240222153303 67 229 1.0 5.0 0.00 0.00 0.00 83 1012.2
20240222153103 67 237 1.0 4.0 0.00 0.00 0.00 84 1012.4
20240222153003 67 245 1.0 4.0 0.00 0.00 0.00 84 1012.4
20240222152903 67 256 1.0 4.0 0.00 0.00 0.00 85 1012.4
20240222152803 67 259 1.0 4.0 0.00 0.00 0.00 85 1012.3
20240222152704 67 261 1.0 4.0 0.00 0.00 0.00 85 1012.2
20240222152505 67 266 1.0 4.0 0.00 0.00 0.00 85 1012.3
20240222152404 67 255 1.0 4.0 0.00 0.00 0.00 84 1012.3
20240222152306 67 250 1.0 4.0 0.00 0.00 0.00 84 1012.3
20240222152103 67 234 1.0 3.0 0.00 0.00 0.00 84 1012.4
20240222151903 66 200 1.0 3.0 0.00 0.00 0.00 84 1012.4
20240222151803 67 182 1.0 2.0 0.00 0.00 0.00 85 1012.3
20240222151603 66 184 0.0 2.0 0.00 0.00 0.00 84 1012.1
20240222151503 66 177 0.0 2.0 0.00 0.00 0.00 84 1012.0
20240222151404 66 187 0.0 2.0 0.00 0.00 0.00 84 1011.9
20240222151304 66 197 0.0 2.0 0.00 0.00 0.00 84 1012.0
20240222151203 66 200 0.0 2.0 0.00 0.00 0.00 84 1012.0
20240222151103 66 229 0.0 2.0 0.00 0.00 0.00 85 1012.0
20240222150904 66 248 0.0 2.0 0.00 0.00 0.00 85 1012.1
20240222150803 66 247 0.0 2.0 0.00 0.00 0.00 85 1012.1
20240222150703 66 256 0.0 2.0 0.00 0.00 0.00 85 1012.1
20240222150604 66 255 0.0 1.0 0.00 0.00 0.00 85 1012.1
20240222150503 66 254 0.0 1.0 0.00 0.00 0.00 85 1012.1
20240222150404 66 254 0.0 1.0 0.00 0.00 0.00 85 1012.0
20240222150304 66 254 0.0 1.0 0.00 0.00 0.00 85 1012.1
20240222150203 66 254 0.0 1.0 0.00 0.00 0.00 85 1012.1
20240222150104 66 253 0.0 1.0 0.00 0.00 0.00 85 1012.1
20240222150003 66 263 0.0 2.0 0.00 0.00 0.00 86 1012.2
20240222145703 66 262 0.0 2.0 0.00 0.00 0.00 86 1012.2
20240222145603 66 254 1.0 2.0 0.00 0.00 0.00 85 1012.1
20240222145403 66 256 1.0 2.0 0.00 0.00 0.00 86 1012.0
20240222145306 66 256 1.0 2.0 0.00 0.00 0.00 86 1012.0
20240222145204 66 251 1.0 2.0 0.00 0.00 0.00 86 1012.0
20240222145003 66 238 1.0 2.0 0.00 0.00 0.00 86 1012.1
20240222144903 66 232 1.0 2.0 0.00 0.00 0.00 86 1012.1
20240222144804 66 231 1.0 2.0 0.00 0.00 0.00 85 1012.1
20240222144704 66 217 1.0 2.0 0.00 0.00 0.00 86 1012.1
20240222144604 66 205 1.0 2.0 0.00 0.00 0.00 86 1012.1
20240222144504 66 193 0.0 2.0 0.00 0.00 0.00 87 1012.0
20240222144403 66 189 0.0 2.0 0.00 0.00 0.00 86 1012.0
20240222144303 66 188 1.0 2.0 0.00 0.00 0.00 86 1012.0
20240222144203 66 184 1.0 3.0 0.00 0.00 0.00 86 1012.0
20240222144103 66 185 1.0 3.0 0.00 0.00 0.00 86 1012.0
20240222143903 66 187 1.0 3.0 0.00 0.00 0.00 86 1012.0
20240222143804 66 189 1.0 3.0 0.00 0.00 0.00 86 1012.0
20240222143703 66 197 1.0 3.0 0.00 0.00 0.00 86 1011.9
20240222143603 66 197 1.0 3.0 0.00 0.00 0.00 86 1011.8
20240222143503 66 196 1.0 3.0 0.00 0.00 0.00 86 1011.8
20240222143403 66 196 1.0 3.0 0.00 0.00 0.00 87 1011.8
20240222143304 66 197 1.0 3.0 0.00 0.00 0.00 86 1011.9
20240222143204 66 201 1.0 3.0 0.00 0.00 0.00 86 1011.9
20240222143103 66 204 0.0 3.0 0.00 0.00 0.00 86 1011.9
20240222143003 66 204 0.0 3.0 0.00 0.00 0.00 86 1011.9
20240222142903 66 204 0.0 3.0 0.00 0.00 0.00 86 1011.9
20240222142803 65 203 0.0 3.0 0.00 0.00 0.00 86 1011.9
20240222142703 65 193 0.0 1.0 0.00 0.00 0.00 86 1011.9
20240222142603 65 198 0.0 1.0 0.00 0.00 0.00 87 1012.0
20240222142403 65 199 0.0 1.0 0.00 0.00 0.00 87 1012.0
20240222142306 65 199 0.0 1.0 0.00 0.00 0.00 87 1011.9
20240222142104 65 198 0.0 1.0 0.00 0.00 0.00 87 1011.8
20240222142003 65 198 0.0 1.0 0.00 0.00 0.00 87 1011.8
20240222141903 65 198 0.0 1.0 0.00 0.00 0.00 87 1011.8
20240222141803 65 198 0.0 1.0 0.00 0.00 0.00 87 1011.7
20240222141703 65 198 0.0 1.0 0.00 0.00 0.00 88 1011.7
20240222141503 65 0 0.0 0.0 0.00 0.00 0.00 87 1011.6
20240222141303 65 198 0.0 2.0 0.00 0.00 0.00 87 1011.6
20240222141103 65 200 0.0 2.0 0.00 0.00 0.00 87 1011.5
20240222140903 65 200 0.0 2.0 0.00 0.00 0.00 88 1011.5
20240222140803 65 206 0.0 2.0 0.00 0.00 0.00 87 1011.6
20240222140703 65 206 0.0 2.0 0.00 0.00 0.00 87 1011.6
20240222140604 65 202 0.0 2.0 0.00 0.00 0.00 87 1011.6
20240222140504 65 192 1.0 3.0 0.00 0.00 0.00 88 1011.6
20240222140403 65 184 1.0 4.0 0.00 0.00 0.00 87 1011.6
20240222140303 65 175 1.0 4.0 0.00 0.00 0.00 88 1011.6
20240222140203 65 174 1.0 4.0 0.00 0.00 0.00 88 1011.6
20240222140103 65 176 1.0 4.0 0.00 0.00 0.00 88 1011.5
20240222140003 65 176 1.0 4.0 0.00 0.00 0.00 88 1011.5
20240222135904 65 176 1.0 4.0 0.00 0.00 0.00 88 1011.5
20240222135803 65 168 1.0 4.0 0.00 0.00 0.00 88 1011.4
20240222135603 65 167 1.0 4.0 0.00 0.00 0.00 88 1011.4
20240222135503 65 167 1.0 4.0 0.00 0.00 0.00 88 1011.4
20240222135403 65 166 1.0 3.0 0.00 0.00 0.00 88 1011.5
20240222135305 65 174 0.0 2.0 0.00 0.00 0.00 88 1011.5
20240222135003 65 181 1.0 2.0 0.00 0.00 0.00 88 1011.4
20240222134903 65 179 1.0 2.0 0.00 0.00 0.00 88 1011.4
20240222134804 65 178 1.0 2.0 0.00 0.00 0.00 88 1011.4
20240222134703 65 175 1.0 2.0 0.00 0.00 0.00 88 1011.4
20240222134604 65 179 1.0 3.0 0.00 0.00 0.00 88 1011.5
20240222134504 65 179 1.0 3.0 0.00 0.00 0.00 88 1011.5
20240222134403 65 181 1.0 3.0 0.00 0.00 0.00 88 1011.5
20240222134303 65 185 1.0 3.0 0.00 0.00 0.00 88 1011.6
20240222134204 65 184 1.0 3.0 0.00 0.00 0.00 88 1011.6
20240222134003 64 189 1.0 3.0 0.00 0.00 0.00 88 1011.5
20240222133903 65 192 1.0 3.0 0.00 0.00 0.00 88 1011.4
20240222133803 65 194 1.0 3.0 0.00 0.00 0.00 88 1011.3
20240222133704 64 202 1.0 3.0 0.00 0.00 0.00 88 1011.4
20240222133603 64 202 1.0 2.0 0.00 0.00 0.00 88 1011.3
20240222133504 64 207 1.0 2.0 0.00 0.00 0.00 88 1011.4
20240222133403 64 208 1.0 2.0 0.00 0.00 0.00 88 1011.3
20240222133304 64 210 1.0 2.0 0.00 0.00 0.00 88 1011.4
20240222133203 64 211 1.0 2.0 0.00 0.00 0.00 88 1011.3
20240222133103 64 212 0.0 2.0 0.00 0.00 0.00 88 1011.3
20240222133003 64 203 0.0 2.0 0.00 0.00 0.00 88 1011.3
20240222132704 64 204 0.0 2.0 0.00 0.00 0.00 88 1011.3
20240222132603 64 226 0.0 2.0 0.00 0.00 0.00 88 1011.4
20240222132503 64 226 0.0 2.0 0.00 0.00 0.00 88 1011.4
20240222132403 64 221 0.0 3.0 0.00 0.00 0.00 88 1011.4
20240222132306 64 221 0.0 3.0 0.00 0.00 0.00 88 1011.4
20240222132204 64 214 1.0 3.0 0.00 0.00 0.00 88 1011.4
20240222132003 64 207 1.0 3.0 0.00 0.00 0.00 88 1011.5
20240222131903 64 204 1.0 3.0 0.00 0.00 0.00 89 1011.6
20240222131803 64 204 1.0 3.0 0.00 0.00 0.00 89 1011.7
20240222131604 64 191 1.0 3.0 0.00 0.00 0.00 89 1011.7
20240222131504 64 193 0.0 3.0 0.00 0.00 0.00 89 1011.7
20240222131404 64 188 0.0 3.0 0.00 0.00 0.00 89 1011.7
20240222131303 64 189 0.0 3.0 0.00 0.00 0.00 89 1011.7
20240222131204 64 187 0.0 3.0 0.00 0.00 0.00 89 1011.6
20240222131104 64 175 0.0 2.0 0.00 0.00 0.00 89 1011.6
20240222131004 64 182 0.0 2.0 0.00 0.00 0.00 89 1011.6
20240222130903 64 184 0.0 2.0 0.00 0.00 0.00 89 1011.6
20240222130803 64 185 0.0 2.0 0.00 0.00 0.00 89 1011.5
20240222130704 64 185 0.0 2.0 0.00 0.00 0.00 89 1011.5
20240222130603 64 183 0.0 2.0 0.00 0.00 0.00 89 1011.5
20240222130503 64 183 0.0 2.0 0.00 0.00 0.00 89 1011.5
20240222130403 64 183 0.0 2.0 0.00 0.00 0.00 89 1011.5
20240222130304 64 182 0.0 2.0 0.00 0.00 0.00 89 1011.5
20240222130204 64 182 0.0 2.0 0.00 0.00 0.00 89 1011.5
20240222130103 64 186 0.0 2.0 0.00 0.00 0.00 89 1011.5
20240222130003 64 178 1.0 3.0 0.00 0.00 0.00 89 1011.5
20240222125903 64 170 1.0 5.0 0.00 0.00 0.00 89 1011.5
20240222125803 64 172 1.0 5.0 0.00 0.00 0.00 89 1011.5
20240222125703 64 173 1.0 5.0 0.00 0.00 0.00 88 1011.5
20240222125504 64 178 1.0 5.0 0.00 0.00 0.00 88 1011.4
20240222125403 64 179 1.0 5.0 0.00 0.00 0.00 88 1011.5
20240222125306 65 179 1.0 5.0 0.00 0.00 0.00 88 1011.4
20240222125203 65 179 1.0 5.0 0.00 0.00 0.00 88 1011.5
20240222125103 65 181 1.0 5.0 0.00 0.00 0.00 88 1011.5
20240222125004 65 182 1.0 5.0 0.00 0.00 0.00 88 1011.4
20240222124903 65 185 1.0 4.0 0.00 0.00 0.00 87 1011.4
20240222124703 65 184 1.0 4.0 0.00 0.00 0.00 87 1011.4
20240222124604 65 181 0.0 4.0 0.00 0.00 0.00 87 1011.3
20240222124403 64 183 0.0 4.0 0.00 0.00 0.00 88 1011.4
20240222124203 64 189 0.0 2.0 0.00 0.00 0.00 88 1011.6
20240222124104 64 189 0.0 2.0 0.00 0.00 0.00 88 1011.6
20240222124003 64 189 0.0 2.0 0.00 0.00 0.00 88 1011.6
20240222123904 64 188 0.0 2.0 0.00 0.00 0.00 88 1011.6
20240222123804 64 0 0.0 0.0 0.00 0.00 0.00 88 1011.6
20240222123704 64 0 0.0 0.0 0.00 0.00 0.00 88 1011.7
20240222123603 64 0 0.0 0.0 0.00 0.00 0.00 88 1011.6
20240222123503 64 213 0.0 1.0 0.00 0.00 0.00 88 1011.6
20240222123403 64 206 0.0 2.0 0.00 0.00 0.00 88 1011.6
20240222123304 64 199 0.0 2.0 0.00 0.00 0.00 88 1011.6
20240222123204 64 199 1.0 2.0 0.00 0.00 0.00 88 1011.6
20240222123104 64 199 1.0 2.0 0.00 0.00 0.00 88 1011.7
20240222123003 64 198 1.0 2.0 0.00 0.00 0.00 88 1011.7
20240222122903 64 193 1.0 2.0 0.00 0.00 0.00 88 1011.7
20240222122703 64 193 1.0 2.0 0.00 0.00 0.00 88 1011.6
20240222122603 64 193 1.0 2.0 0.00 0.00 0.00 88 1011.6
20240222122503 64 193 1.0 2.0 0.00 0.00 0.00 88 1011.5
20240222122404 64 190 0.0 2.0 0.00 0.00 0.00 88 1011.5
20240222122306 64 188 0.0 2.0 0.00 0.00 0.00 88 1011.5
20240222122203 64 181 0.0 2.0 0.00 0.00 0.00 88 1011.5
20240222122104 64 173 0.0 2.0 0.00 0.00 0.00 88 1011.6
20240222122003 64 142 0.0 1.0 0.00 0.00 0.00 87 1011.7
20240222121603 64 0 0.0 0.0 0.00 0.00 0.00 87 1011.9
20240222121503 64 0 0.0 0.0 0.00 0.00 0.00 87 1012.0
20240222121404 64 208 0.0 1.0 0.00 0.00 0.00 87 1012.1
20240222121303 64 209 0.0 1.0 0.00 0.00 0.00 87 1012.1
20240222121103 64 220 0.0 2.0 0.00 0.00 0.00 87 1012.2
20240222121004 65 222 0.0 2.0 0.00 0.00 0.00 87 1012.2
20240222120704 65 232 0.0 2.0 0.00 0.00 0.00 87 1012.1
20240222120403 65 221 0.0 3.0 0.00 0.00 0.00 87 1012.0
20240222120203 65 233 0.0 3.0 0.00 0.00 0.00 87 1012.0
20240222120103 65 236 0.0 3.0 0.00 0.00 0.00 87 1012.0
20240222115903 65 222 0.0 3.0 0.00 0.00 0.00 87 1011.9
20240222115803 65 194 0.0 3.0 0.00 0.00 0.00 86 1011.7
20240222115704 65 196 0.0 3.0 0.00 0.00 0.00 86 1011.6
20240222115604 65 206 0.0 2.0 0.00 0.00 0.00 86 1011.6
20240222115405 65 196 0.0 2.0 0.00 0.00 0.00 86 1011.7
20240222115305 65 196 0.0 2.0 0.00 0.00 0.00 86 1011.7
20240222115204 65 183 0.0 2.0 0.00 0.00 0.00 86 1011.8
20240222115103 65 177 0.0 2.0 0.00 0.00 0.00 86 1011.7
20240222114903 65 172 0.0 1.0 0.00 0.00 0.00 86 1011.7
20240222114803 65 173 0.0 1.0 0.00 0.00 0.00 86 1011.7
20240222114703 65 165 0.0 1.0 0.00 0.00 0.00 86 1011.8
20240222114603 65 156 0.0 1.0 0.00 0.00 0.00 86 1011.9
20240222114503 65 0 0.0 0.0 0.00 0.00 0.00 86 1011.9
20240222114404 65 0 0.0 0.0 0.00 0.00 0.00 86 1011.9
20240222114304 65 0 0.0 0.0 0.00 0.00 0.00 86 1011.9
20240222114203 65 0 0.0 0.0 0.00 0.00 0.00 86 1011.9
20240222114103 65 0 0.0 0.0 0.00 0.00 0.00 86 1012.0
20240222114003 65 0 0.0 0.0 0.00 0.00 0.00 86 1012.0
20240222113804 65 0 0.0 0.0 0.00 0.00 0.00 86 1012.2
20240222113603 65 334 0.0 1.0 0.00 0.00 0.00 86 1012.4
20240222113503 65 334 0.0 1.0 0.00 0.00 0.00 86 1012.4
20240222113404 65 334 0.0 1.0 0.00 0.00 0.00 86 1012.4
20240222113304 65 334 0.0 1.0 0.00 0.00 0.00 86 1012.4
20240222113103 65 334 0.0 1.0 0.00 0.00 0.00 86 1012.3
20240222112903 65 334 0.0 1.0 0.00 0.00 0.00 86 1012.4
20240222112803 65 334 0.0 1.0 0.00 0.00 0.00 86 1012.4
20240222112603 65 318 0.0 2.0 0.00 0.00 0.00 85 1012.4
20240222112504 65 318 0.0 2.0 0.00 0.00 0.00 85 1012.5
20240222112404 65 318 0.0 2.0 0.00 0.00 0.00 85 1012.4
20240222112306 65 318 0.0 2.0 0.00 0.00 0.00 85 1012.3
20240222112204 65 318 0.0 2.0 0.00 0.00 0.00 85 1012.3
20240222112105 65 305 0.0 2.0 0.00 0.00 0.00 85 1012.3
20240222112004 65 216 0.0 2.0 0.00 0.00 0.00 85 1012.3
20240222111903 65 216 0.0 2.0 0.00 0.00 0.00 85 1012.4
20240222111804 65 216 0.0 2.0 0.00 0.00 0.00 85 1012.4
20240222111704 65 247 0.0 2.0 0.00 0.00 0.00 85 1012.4
20240222111503 65 281 0.0 2.0 0.00 0.00 0.00 85 1012.3
20240222111303 65 288 0.0 2.0 0.00 0.00 0.00 85 1012.1
20240222111203 65 288 0.0 2.0 0.00 0.00 0.00 85 1012.1
20240222111103 65 286 0.0 2.0 0.00 0.00 0.00 85 1012.1
20240222111003 65 287 0.0 2.0 0.00 0.00 0.00 85 1012.2
20240222110903 65 223 1.0 2.0 0.00 0.00 0.00 85 1012.3
20240222110603 65 230 1.0 3.0 0.00 0.00 0.00 85 1012.3
20240222110503 65 231 1.0 3.0 0.00 0.00 0.00 85 1012.1
20240222110403 65 246 1.0 3.0 0.00 0.00 0.00 85 1012.0
20240222110303 65 276 1.0 3.0 0.00 0.00 0.00 85 1011.9
20240222110103 65 286 1.0 3.0 0.00 0.00 0.00 85 1011.7
20240222110003 65 287 1.0 3.0 0.00 0.00 0.00 85 1011.8
20240222105904 65 283 1.0 3.0 0.00 0.00 0.00 85 1012.0
20240222105604 65 232 1.0 3.0 0.00 0.00 0.00 85 1012.2
20240222105503 65 212 1.0 3.0 0.00 0.00 0.00 85 1012.2
20240222105403 65 200 1.0 3.0 0.00 0.00 0.00 85 1012.1
20240222105204 65 175 1.0 3.0 0.00 0.00 0.00 85 1011.8
20240222105103 65 186 1.0 3.0 0.00 0.00 0.00 85 1011.7
20240222105003 65 187 1.0 3.0 0.00 0.00 0.00 85 1011.6
20240222104903 65 206 1.0 2.0 0.00 0.00 0.00 85 1011.7
20240222104603 65 292 0.0 2.0 0.00 0.00 0.00 85 1011.9
20240222104504 65 310 0.0 2.0 0.00 0.00 0.00 85 1012.0
20240222104404 65 310 0.0 2.0 0.00 0.00 0.00 85 1012.1
20240222104303 65 309 0.0 2.0 0.00 0.00 0.00 85 1012.2
20240222104203 65 281 0.0 2.0 0.00 0.00 0.00 85 1012.3
20240222104104 65 260 0.0 2.0 0.00 0.00 0.00 85 1012.2
20240222104003 65 230 0.0 2.0 0.00 0.00 0.00 85 1012.2
20240222103904 65 204 0.0 2.0 0.00 0.00 0.00 85 1012.1
20240222103803 65 198 0.0 2.0 0.00 0.00 0.00 85 1012.0
20240222103703 65 231 0.0 2.0 0.00 0.00 0.00 85 1011.9
20240222103603 65 253 1.0 2.0 0.00 0.00 0.00 85 1011.9
20240222103503 65 298 1.0 4.0 0.00 0.00 0.00 85 1011.9
20240222103403 65 303 1.0 4.0 0.00 0.00 0.00 85 1011.9
20240222103303 65 306 1.0 4.0 0.00 0.00 0.00 85 1012.0
20240222103203 65 313 1.0 4.0 0.00 0.00 0.00 85 1012.0
20240222103103 65 312 1.0 4.0 0.00 0.00 0.00 85 1012.1
20240222103003 65 312 1.0 4.0 0.00 0.00 0.00 85 1012.3
20240222102804 65 305 1.0 4.0 0.00 0.00 0.00 85 1012.2
20240222102703 65 304 1.0 4.0 0.00 0.00 0.00 85 1012.2
20240222102604 65 301 1.0 4.0 0.00 0.00 0.00 85 1012.2
20240222102504 65 282 1.0 3.0 0.00 0.00 0.00 85 1012.1
20240222102403 65 268 1.0 4.0 0.00 0.00 0.00 85 1012.1
20240222102305 65 256 1.0 4.0 0.00 0.00 0.00 85 1011.9
20240222102203 65 238 1.0 4.0 0.00 0.00 0.00 85 1011.8
20240222102104 65 218 1.0 4.0 0.00 0.00 0.00 85 1011.6
20240222102003 65 213 1.0 4.0 0.00 0.00 0.00 85 1011.4
20240222101903 65 201 2.0 5.0 0.00 0.00 0.00 85 1011.3
20240222101803 65 200 2.0 5.0 0.00 0.00 0.00 85 1011.2
20240222101703 65 198 2.0 5.0 0.00 0.00 0.00 85 1011.2
20240222101604 65 196 2.0 5.0 0.00 0.00 0.00 85 1011.1
20240222101504 65 196 2.0 5.0 0.00 0.00 0.00 85 1011.1
20240222101403 65 187 2.0 5.0 0.00 0.00 0.00 85 1011.1
20240222101303 65 186 2.0 5.0 0.00 0.00 0.00 85 1011.1
20240222101204 65 187 2.0 5.0 0.00 0.00 0.00 85 1011.1
20240222101003 65 188 2.0 5.0 0.00 0.00 0.00 85 1011.0
20240222100905 65 188 2.0 5.0 0.00 0.00 0.00 85 1011.0
20240222100804 65 187 2.0 5.0 0.00 0.00 0.00 85 1010.9
20240222100703 65 184 2.0 5.0 0.00 0.00 0.00 85 1010.9
20240222100603 65 185 1.0 5.0 0.00 0.00 0.00 85 1010.9
20240222100503 65 182 1.0 5.0 0.00 0.00 0.00 85 1010.9
20240222100403 65 182 1.0 5.0 0.00 0.00 0.00 85 1010.9
20240222100303 65 181 1.0 5.0 0.00 0.00 0.00 85 1010.9
20240222100203 65 182 1.0 5.0 0.00 0.00 0.00 85 1010.8
20240222100103 65 182 1.0 4.0 0.00 0.00 0.00 85 1010.9
20240222100003 65 181 1.0 5.0 0.00 0.00 0.00 85 1010.9
20240222095903 65 184 2.0 5.0 0.00 0.00 0.00 85 1010.8
20240222095804 65 186 2.0 5.0 0.00 0.00 0.00 85 1010.8
20240222095703 65 190 2.0 5.0 0.00 0.00 0.00 85 1010.8
20240222095604 65 192 2.0 5.0 0.00 0.00 0.00 85 1010.8
20240222095504 65 189 2.0 5.0 0.00 0.00 0.00 85 1010.8
20240222095305 65 190 2.0 5.0 0.00 0.00 0.00 85 1010.8
20240222095104 65 190 2.0 5.0 0.00 0.00 0.00 85 1010.9
20240222095003 65 192 2.0 5.0 0.00 0.00 0.00 85 1010.9
20240222094903 65 191 2.0 5.0 0.00 0.00 0.00 85 1010.9
20240222094803 65 193 2.0 5.0 0.00 0.00 0.00 85 1010.9
20240222094703 65 190 2.0 5.0 0.00 0.00 0.00 85 1010.9
20240222094604 65 188 2.0 5.0 0.00 0.00 0.00 85 1010.9
20240222094503 65 190 2.0 5.0 0.00 0.00 0.00 85 1010.9
20240222094404 65 190 2.0 5.0 0.00 0.00 0.00 85 1010.9
20240222094303 65 192 2.0 5.0 0.00 0.00 0.00 85 1011.0
20240222094104 65 188 2.0 6.0 0.00 0.00 0.00 85 1011.0
20240222094004 65 188 3.0 6.0 0.00 0.00 0.00 85 1011.0
20240222093904 65 184 3.0 9.0 0.00 0.00 0.00 85 1011.0
20240222093803 65 182 2.0 9.0 0.00 0.00 0.00 85 1010.9
20240222093703 65 182 2.0 9.0 0.00 0.00 0.00 85 1010.9
20240222093603 65 183 2.0 9.0 0.00 0.00 0.00 85 1010.8
20240222093503 65 183 2.0 9.0 0.00 0.00 0.00 85 1010.9
20240222093403 65 182 2.0 9.0 0.00 0.00 0.00 85 1010.8
20240222093203 65 178 2.0 9.0 0.00 0.00 0.00 85 1010.8
20240222093104 65 178 2.0 9.0 0.00 0.00 0.00 85 1010.8
20240222093004 65 181 2.0 9.0 0.00 0.00 0.00 85 1010.8
20240222092903 65 184 2.0 5.0 0.00 0.00 0.00 85 1010.8
20240222092803 65 184 2.0 5.0 0.00 0.00 0.00 85 1010.8
20240222092703 65 183 2.0 5.0 0.00 0.00 0.00 85 1010.8
20240222092603 65 186 2.0 6.0 0.00 0.00 0.00 85 1010.9
20240222092103 65 188 3.0 7.0 0.00 0.00 0.00 85 1011.0
20240222091903 65 177 3.0 7.0 0.00 0.00 0.00 85 1011.1
20240222091703 65 178 3.0 8.0 0.00 0.00 0.00 85 1011.1
20240222091504 65 177 3.0 8.0 0.00 0.00 0.00 85 1011.1
20240222091304 65 181 3.0 8.0 0.00 0.00 0.00 85 1011.1
20240222091204 65 179 3.0 8.0 0.00 0.00 0.00 85 1011.1
20240222091104 65 182 3.0 8.0 0.00 0.00 0.00 85 1011.2
20240222091004 65 185 2.0 8.0 0.00 0.00 0.00 85 1011.2
20240222090903 65 190 3.0 8.0 0.00 0.00 0.00 85 1011.2
20240222090803 65 189 3.0 8.0 0.00 0.00 0.00 85 1011.2
20240222090703 65 188 2.0 8.0 0.00 0.00 0.00 85 1011.2
20240222090604 65 189 3.0 8.0 0.00 0.00 0.00 85 1011.2
20240222090403 65 183 3.0 8.0 0.00 0.00 0.00 85 1011.2
20240222090303 65 181 3.0 8.0 0.00 0.00 0.00 85 1011.3
20240222090204 65 179 3.0 8.0 0.00 0.00 0.00 85 1011.3
20240222090103 65 177 3.0 8.0 0.00 0.00 0.00 85 1011.3
20240222090003 65 178 3.0 8.0 0.00 0.00 0.00 85 1011.3
20240222085904 65 177 3.0 8.0 0.00 0.00 0.00 85 1011.2
20240222085804 65 178 3.0 8.0 0.00 0.00 0.00 85 1011.2
20240222085703 65 179 4.0 8.0 0.00 0.00 0.00 85 1011.2
20240222085603 65 176 4.0 8.0 0.00 0.00 0.00 85 1011.2
20240222085503 65 176 4.0 8.0 0.00 0.00 0.00 85 1011.2
20240222085403 65 178 4.0 10.0 0.00 0.00 0.00 85 1011.2
20240222085305 65 177 4.0 10.0 0.00 0.00 0.00 85 1011.2
20240222085203 65 176 4.0 10.0 0.00 0.00 0.00 85 1011.2
20240222085103 65 176 4.0 10.0 0.00 0.00 0.00 85 1011.2
20240222085004 65 176 4.0 10.0 0.00 0.00 0.00 85 1011.3
20240222084803 65 174 4.0 10.0 0.00 0.00 0.00 85 1011.4
20240222084603 65 175 4.0 10.0 0.00 0.00 0.00 85 1011.4
20240222084503 65 175 3.0 10.0 0.00 0.00 0.00 85 1011.4
20240222084404 65 174 3.0 10.0 0.00 0.00 0.00 85 1011.4
20240222084304 65 175 3.0 7.0 0.00 0.00 0.00 85 1011.4
20240222084204 65 176 3.0 7.0 0.00 0.00 0.00 85 1011.5
20240222084103 65 178 3.0 7.0 0.00 0.00 0.00 85 1011.5
20240222084004 65 179 3.0 7.0 0.00 0.00 0.00 85 1011.5
20240222083904 65 183 3.0 6.0 0.00 0.00 0.00 84 1011.6
20240222083803 65 188 3.0 6.0 0.00 0.00 0.00 84 1011.6
20240222083703 65 186 3.0 6.0 0.00 0.00 0.00 84 1011.7
20240222083603 65 185 3.0 6.0 0.00 0.00 0.00 84 1011.6
20240222083503 65 185 3.0 6.0 0.00 0.00 0.00 84 1011.7
20240222083303 65 183 3.0 6.0 0.00 0.00 0.00 84 1011.7
20240222083204 65 181 3.0 7.0 0.00 0.00 0.00 84 1011.7
20240222083004 65 177 3.0 7.0 0.00 0.00 0.00 84 1011.7
20240222082903 65 177 3.0 7.0 0.00 0.00 0.00 84 1011.6
20240222082804 65 177 3.0 7.0 0.00 0.00 0.00 84 1011.7
20240222082703 65 178 3.0 7.0 0.00 0.00 0.00 84 1011.7
20240222082603 65 181 3.0 7.0 0.00 0.00 0.00 84 1011.7
20240222082503 65 181 3.0 7.0 0.00 0.00 0.00 84 1011.6
20240222082305 65 184 3.0 7.0 0.00 0.00 0.00 84 1011.6
20240222082204 65 188 3.0 7.0 0.00 0.00 0.00 84 1011.7
20240222081905 65 193 3.0 7.0 0.00 0.00 0.00 84 1011.7
20240222081803 65 190 3.0 7.0 0.00 0.00 0.00 84 1011.8
20240222081503 65 185 3.0 8.0 0.00 0.00 0.00 84 1011.9
20240222081404 65 179 3.0 8.0 0.00 0.00 0.00 84 1011.9
20240222081204 65 175 3.0 8.0 0.00 0.00 0.00 84 1011.8
20240222081103 65 173 3.0 8.0 0.00 0.00 0.00 84 1011.9
20240222081004 65 174 3.0 8.0 0.00 0.00 0.00 84 1011.9
20240222080903 65 175 3.0 8.0 0.00 0.00 0.00 84 1011.9
20240222080704 65 176 3.0 8.0 0.00 0.00 0.00 84 1011.9
20240222080603 65 172 3.0 8.0 0.00 0.00 0.00 84 1011.9
20240222080304 65 176 3.0 9.0 0.00 0.00 0.00 84 1012.0
20240222080103 65 179 3.0 9.0 0.00 0.00 0.00 84 1012.0
20240222080004 65 177 3.0 9.0 0.00 0.00 0.00 84 1011.9
20240222075904 65 179 4.0 9.0 0.00 0.00 0.00 84 1012.0
20240222075803 65 178 4.0 9.0 0.00 0.00 0.00 84 1011.9
20240222075703 65 179 4.0 9.0 0.00 0.00 0.00 84 1011.9
20240222075604 65 183 4.0 9.0 0.00 0.00 0.00 84 1012.0
20240222075503 65 188 4.0 9.0 0.00 0.00 0.00 84 1012.0
20240222075404 65 187 4.0 13.0 0.00 0.00 0.00 84 1012.0
20240222075306 65 188 4.0 13.0 0.00 0.00 0.00 84 1012.1
20240222075203 65 185 4.0 13.0 0.00 0.00 0.00 84 1012.0
20240222075103 65 183 5.0 13.0 0.00 0.00 0.00 84 1012.0
20240222075003 65 183 4.0 13.0 0.00 0.00 0.00 84 1012.1
20240222074903 65 181 4.0 13.0 0.00 0.00 0.00 84 1012.1
20240222074704 65 176 5.0 13.0 0.00 0.00 0.00 84 1012.1
20240222074604 65 174 5.0 13.0 0.00 0.00 0.00 84 1012.1
20240222074304 65 166 5.0 10.0 0.00 0.00 0.00 84 1012.1
20240222074103 65 165 4.0 10.0 0.00 0.00 0.00 84 1012.1
20240222074003 65 165 4.0 10.0 0.00 0.00 0.00 84 1012.1
20240222073903 65 164 4.0 10.0 0.00 0.00 0.00 84 1012.0
20240222073803 65 165 4.0 10.0 0.00 0.00 0.00 84 1012.0
20240222073703 65 166 5.0 12.0 0.00 0.00 0.00 84 1012.0
20240222073604 65 167 5.0 12.0 0.00 0.00 0.00 84 1012.1
20240222073404 65 170 5.0 12.0 0.00 0.00 0.00 84 1012.0
20240222073304 65 171 5.0 12.0 0.00 0.00 0.00 84 1012.0
20240222073204 65 173 5.0 12.0 0.00 0.00 0.00 84 1012.0
20240222073103 65 174 5.0 12.0 0.00 0.00 0.00 84 1012.0
20240222073003 65 175 5.0 12.0 0.00 0.00 0.00 84 1012.0
20240222072904 65 175 5.0 12.0 0.00 0.00 0.00 84 1012.1
20240222072803 65 177 4.0 12.0 0.00 0.00 0.00 84 1012.1
20240222072603 65 177 4.0 9.0 0.00 0.00 0.00 84 1012.2
20240222072504 65 179 4.0 9.0 0.00 0.00 0.00 84 1012.2
20240222072305 65 177 4.0 11.0 0.00 0.00 0.00 84 1012.3
20240222072004 65 173 4.0 11.0 0.00 0.00 0.00 84 1012.3
20240222071903 65 172 4.0 11.0 0.00 0.00 0.00 84 1012.3
20240222071704 65 170 5.0 11.0 0.00 0.00 0.00 84 1012.3
20240222071604 65 171 4.0 11.0 0.00 0.00 0.00 84 1012.3
20240222071503 65 168 4.0 11.0 0.00 0.00 0.00 84 1012.3
20240222071403 65 169 4.0 10.0 0.00 0.00 0.00 84 1012.3
20240222071303 65 169 4.0 10.0 0.00 0.00 0.00 84 1012.3
20240222071204 65 169 4.0 10.0 0.00 0.00 0.00 85 1012.4
20240222070904 65 167 4.0 10.0 0.00 0.00 0.00 85 1012.4
20240222070804 65 169 4.0 9.0 0.00 0.00 0.00 85 1012.4
20240222070704 65 169 4.0 9.0 0.00 0.00 0.00 85 1012.4
20240222070604 65 167 4.0 9.0 0.00 0.00 0.00 85 1012.4
20240222070503 65 166 4.0 9.0 0.00 0.00 0.00 85 1012.4
20240222070403 65 164 4.0 10.0 0.00 0.00 0.00 85 1012.3
20240222070304 65 165 5.0 10.0 0.00 0.00 0.00 85 1012.3
20240222070203 65 165 5.0 12.0 0.00 0.00 0.00 85 1012.3
20240222070103 65 165 5.0 12.0 0.00 0.00 0.00 85 1012.3
20240222065903 65 164 5.0 12.0 0.00 0.00 0.00 85 1012.3
20240222065803 65 162 5.0 12.0 0.00 0.00 0.00 85 1012.4
20240222065703 65 162 5.0 12.0 0.00 0.00 0.00 85 1012.4
20240222065603 65 163 5.0 12.0 0.00 0.00 0.00 85 1012.4
20240222065405 65 166 4.0 12.0 0.00 0.00 0.00 85 1012.4
20240222065204 65 164 3.0 9.0 0.00 0.00 0.00 85 1012.5
20240222065104 65 165 3.0 9.0 0.00 0.00 0.00 85 1012.5
20240222064904 65 171 2.0 9.0 0.00 0.00 0.00 85 1012.5
20240222064805 65 177 2.0 6.0 0.00 0.00 0.00 85 1012.6
20240222064704 64 177 3.0 7.0 0.00 0.00 0.00 85 1012.7
20240222064504 64 174 3.0 11.0 0.00 0.00 0.00 85 1012.7
20240222064403 64 171 4.0 12.0 0.00 0.00 0.00 85 1012.7
20240222064303 64 171 4.0 12.0 0.00 0.00 0.00 85 1012.7
20240222064203 64 171 5.0 12.0 0.00 0.00 0.00 85 1012.7
20240222064104 64 171 5.0 12.0 0.00 0.00 0.00 85 1012.7
20240222064003 64 169 5.0 12.0 0.00 0.00 0.00 85 1012.7
20240222063903 64 169 5.0 12.0 0.00 0.00 0.00 85 1012.7
20240222063804 64 167 5.0 12.0 0.00 0.00 0.00 85 1012.8
20240222063704 64 167 5.0 12.0 0.00 0.00 0.00 86 1012.7
20240222063604 64 171 5.0 12.0 0.00 0.00 0.00 86 1012.7
20240222063504 64 170 5.0 12.0 0.00 0.00 0.00 86 1012.7
20240222063404 64 171 5.0 12.0 0.00 0.00 0.00 86 1012.7
20240222063103 64 170 5.0 12.0 0.00 0.00 0.00 86 1012.8
20240222063004 64 170 5.0 12.0 0.00 0.00 0.00 86 1012.8
20240222062903 64 169 5.0 12.0 0.00 0.00 0.00 86 1012.8
20240222062803 64 169 5.0 12.0 0.00 0.00 0.00 86 1012.8
20240222062704 64 168 5.0 12.0 0.00 0.00 0.00 86 1012.9
20240222062604 64 167 4.0 12.0 0.00 0.00 0.00 86 1012.8
20240222062504 64 166 4.0 12.0 0.00 0.00 0.00 86 1012.9
20240222062403 64 165 3.0 10.0 0.00 0.00 0.00 86 1012.9
20240222062305 64 167 3.0 9.0 0.00 0.00 0.00 86 1012.9
20240222062203 64 167 3.0 9.0 0.00 0.00 0.00 86 1013.0
20240222062104 64 169 3.0 9.0 0.00 0.00 0.00 86 1013.0
20240222062004 64 172 3.0 9.0 0.00 0.00 0.00 86 1013.0
20240222061904 64 176 3.0 9.0 0.00 0.00 0.00 86 1013.1
20240222061704 64 181 3.0 11.0 0.00 0.00 0.00 86 1013.1
20240222061404 64 181 3.0 11.0 0.00 0.00 0.00 86 1013.1
20240222061303 64 183 3.0 11.0 0.00 0.00 0.00 86 1013.1
20240222061203 64 184 4.0 11.0 0.00 0.00 0.00 86 1013.1
20240222061003 64 181 4.0 11.0 0.00 0.00 0.00 86 1013.2
20240222060803 64 176 4.0 11.0 0.00 0.00 0.00 86 1013.2
20240222060703 64 174 3.0 8.0 0.00 0.00 0.00 86 1013.2
20240222060604 64 177 4.0 8.0 0.00 0.00 0.00 86 1013.1
20240222060504 64 177 4.0 8.0 0.00 0.00 0.00 86 1013.2
20240222060303 64 175 4.0 7.0 0.00 0.00 0.00 86 1013.2
20240222060204 64 174 4.0 7.0 0.00 0.00 0.00 86 1013.2
20240222060104 64 170 4.0 8.0 0.00 0.00 0.00 86 1013.2
20240222060004 64 171 4.0 8.0 0.00 0.00 0.00 85 1013.1
20240222055904 64 174 4.0 8.0 0.00 0.00 0.00 86 1013.1
20240222055803 64 173 4.0 8.0 0.00 0.00 0.00 85 1013.2
20240222055703 64 173 4.0 8.0 0.00 0.00 0.00 85 1013.1
20240222055604 64 174 3.0 8.0 0.00 0.00 0.00 85 1013.2
20240222055504 64 174 3.0 8.0 0.00 0.00 0.00 85 1013.1
20240222055404 64 168 4.0 8.0 0.00 0.00 0.00 85 1013.1
20240222055306 64 168 4.0 8.0 0.00 0.00 0.00 85 1013.2
20240222055204 64 169 4.0 8.0 0.00 0.00 0.00 85 1013.2
20240222055003 64 169 4.0 9.0 0.00 0.00 0.00 85 1013.2
20240222054904 64 167 4.0 9.0 0.00 0.00 0.00 85 1013.2
20240222054804 64 168 4.0 9.0 0.00 0.00 0.00 85 1013.2
20240222054703 64 167 4.0 9.0 0.00 0.00 0.00 85 1013.2
20240222054503 64 166 4.0 9.0 0.00 0.00 0.00 85 1013.2
20240222054403 64 168 4.0 9.0 0.00 0.00 0.00 85 1013.3
20240222054303 64 167 4.0 9.0 0.00 0.00 0.00 85 1013.3
20240222054203 64 164 4.0 10.0 0.00 0.00 0.00 85 1013.3
20240222054104 64 161 4.0 10.0 0.00 0.00 0.00 85 1013.3
20240222053903 64 163 4.0 10.0 0.00 0.00 0.00 85 1013.4
20240222053703 64 162 4.0 10.0 0.00 0.00 0.00 85 1013.5
20240222053604 64 161 4.0 10.0 0.00 0.00 0.00 85 1013.6
20240222053503 64 161 4.0 10.0 0.00 0.00 0.00 85 1013.6
20240222053403 64 161 4.0 10.0 0.00 0.00 0.00 85 1013.6
20240222053303 64 160 4.0 10.0 0.00 0.00 0.00 85 1013.6
20240222053203 64 161 4.0 10.0 0.00 0.00 0.00 85 1013.7
20240222053104 64 166 4.0 10.0 0.00 0.00 0.00 85 1013.7
20240222053003 64 167 4.0 10.0 0.00 0.00 0.00 85 1013.6
20240222052804 64 165 4.0 10.0 0.00 0.00 0.00 85 1013.6
20240222052703 64 165 4.0 10.0 0.00 0.00 0.00 85 1013.6
20240222052603 64 165 4.0 10.0 0.00 0.00 0.00 85 1013.6
20240222052503 64 166 4.0 10.0 0.00 0.00 0.00 85 1013.6
20240222052403 64 166 4.0 9.0 0.00 0.00 0.00 85 1013.7
20240222052305 64 168 4.0 9.0 0.00 0.00 0.00 85 1013.7
20240222052203 64 170 4.0 9.0 0.00 0.00 0.00 85 1013.7
20240222052103 64 169 4.0 9.0 0.00 0.00 0.00 85 1013.7
20240222051904 64 169 4.0 10.0 0.00 0.00 0.00 85 1013.7
20240222051805 64 171 4.0 10.0 0.00 0.00 0.00 85 1013.7
20240222051704 64 170 5.0 10.0 0.00 0.00 0.00 85 1013.7
20240222051603 64 168 5.0 10.0 0.00 0.00 0.00 85 1013.7
20240222051503 64 169 5.0 10.0 0.00 0.00 0.00 85 1013.7
20240222051403 64 169 5.0 10.0 0.00 0.00 0.00 85 1013.8
20240222051304 64 169 5.0 10.0 0.00 0.00 0.00 85 1013.7
20240222051204 64 170 5.0 10.0 0.00 0.00 0.00 85 1013.7
20240222051104 64 170 4.0 10.0 0.00 0.00 0.00 85 1013.7
20240222051004 64 169 4.0 9.0 0.00 0.00 0.00 85 1013.7
20240222050903 64 169 4.0 9.0 0.00 0.00 0.00 85 1013.7
20240222050803 64 169 4.0 9.0 0.00 0.00 0.00 85 1013.7
20240222050703 64 171 4.0 9.0 0.00 0.00 0.00 84 1013.7
20240222050604 64 171 4.0 9.0 0.00 0.00 0.00 84 1013.7
20240222050303 65 170 4.0 9.0 0.00 0.00 0.00 84 1013.8
20240222050203 65 169 4.0 9.0 0.00 0.00 0.00 84 1013.7
20240222050003 64 169 4.0 9.0 0.00 0.00 0.00 84 1013.8
20240222045903 65 169 5.0 9.0 0.00 0.00 0.00 84 1013.7
20240222045803 65 167 5.0 9.0 0.00 0.00 0.00 84 1013.7
20240222045703 65 167 5.0 9.0 0.00 0.00 0.00 84 1013.8
20240222045604 65 169 5.0 9.0 0.00 0.00 0.00 84 1013.8
20240222045504 65 169 5.0 11.0 0.00 0.00 0.00 84 1013.8
20240222045404 65 168 5.0 11.0 0.00 0.00 0.00 84 1013.7
20240222045306 65 170 5.0 11.0 0.00 0.00 0.00 84 1013.7
20240222045103 65 168 5.0 11.0 0.00 0.00 0.00 84 1013.8
20240222045003 65 167 5.0 11.0 0.00 0.00 0.00 84 1013.8
20240222044903 65 168 6.0 11.0 0.00 0.00 0.00 84 1013.8
20240222044804 65 169 6.0 11.0 0.00 0.00 0.00 84 1013.8
20240222044703 65 171 6.0 11.0 0.00 0.00 0.00 84 1013.8
20240222044603 65 169 5.0 11.0 0.00 0.00 0.00 84 1013.8
20240222044503 65 169 5.0 11.0 0.00 0.00 0.00 84 1013.9
20240222044403 65 171 5.0 11.0 0.00 0.00 0.00 84 1013.8
20240222044303 65 169 5.0 12.0 0.00 0.00 0.00 84 1013.9
20240222044203 65 169 5.0 13.0 0.00 0.00 0.00 84 1013.9
20240222044103 65 167 5.0 13.0 0.00 0.00 0.00 84 1013.9
20240222044004 65 168 5.0 13.0 0.00 0.00 0.00 84 1013.9
20240222043904 65 168 5.0 13.0 0.00 0.00 0.00 84 1013.8
20240222043804 65 168 4.0 13.0 0.00 0.00 0.00 84 1013.9
20240222043603 65 163 4.0 13.0 0.00 0.00 0.00 84 1013.9
20240222043503 65 163 4.0 13.0 0.00 0.00 0.00 84 1013.9
20240222043403 65 161 3.0 13.0 0.00 0.00 0.00 84 1013.9
20240222043303 65 162 3.0 13.0 0.00 0.00 0.00 84 1013.9
20240222043203 65 161 3.0 8.0 0.00 0.00 0.00 84 1014.0
20240222043104 65 161 3.0 8.0 0.00 0.00 0.00 84 1014.0
20240222042904 65 163 3.0 7.0 0.00 0.00 0.00 84 1014.0
20240222042804 65 164 3.0 7.0 0.00 0.00 0.00 84 1014.0
20240222042704 65 167 3.0 7.0 0.00 0.00 0.00 84 1014.1
20240222042603 65 169 3.0 6.0 0.00 0.00 0.00 84 1014.1
20240222042403 65 171 3.0 9.0 0.00 0.00 0.00 84 1014.0
20240222042305 65 171 3.0 9.0 0.00 0.00 0.00 84 1014.0
20240222042004 65 176 4.0 9.0 0.00 0.00 0.00 84 1014.0
20240222041904 65 177 4.0 9.0 0.00 0.00 0.00 84 1013.9
20240222041804 65 176 4.0 9.0 0.00 0.00 0.00 84 1013.9
20240222041704 65 177 4.0 10.0 0.00 0.00 0.00 84 1013.9
20240222041604 65 179 4.0 10.0 0.00 0.00 0.00 84 1013.9
20240222041504 65 179 4.0 10.0 0.00 0.00 0.00 84 1013.9
20240222041403 65 181 4.0 10.0 0.00 0.00 0.00 84 1013.9
20240222041304 65 181 4.0 10.0 0.00 0.00 0.00 84 1013.9
20240222041203 65 178 5.0 10.0 0.00 0.00 0.00 84 1013.9
20240222041103 65 177 5.0 10.0 0.00 0.00 0.00 84 1013.9
20240222041004 65 174 4.0 10.0 0.00 0.00 0.00 84 1013.9
20240222040803 65 173 4.0 10.0 0.00 0.00 0.00 84 1013.9
20240222040703 65 171 4.0 9.0 0.00 0.00 0.00 84 1013.9
20240222040604 65 169 4.0 9.0 0.00 0.00 0.00 84 1013.9
20240222040503 65 167 4.0 9.0 0.00 0.00 0.00 84 1013.9
20240222040404 65 167 5.0 10.0 0.00 0.00 0.00 84 1013.9
20240222040304 65 168 5.0 10.0 0.00 0.00 0.00 84 1013.9
20240222040204 65 166 5.0 10.0 0.00 0.00 0.00 84 1013.9
20240222040103 65 166 5.0 12.0 0.00 0.00 0.00 84 1013.9
20240222040004 65 165 5.0 12.0 0.00 0.00 0.00 84 1013.9
20240222035803 65 167 5.0 12.0 0.00 0.00 0.00 83 1014.0
20240222035704 65 168 5.0 12.0 0.00 0.00 0.00 83 1014.0
20240222035604 65 168 5.0 12.0 0.00 0.00 0.00 83 1014.0
20240222035503 65 169 5.0 12.0 0.00 0.00 0.00 83 1014.0
20240222035403 65 168 5.0 12.0 0.00 0.00 0.00 83 1014.0
20240222035306 65 167 4.0 12.0 0.00 0.00 0.00 83 1014.0
20240222035103 65 172 4.0 12.0 0.00 0.00 0.00 83 1014.0
20240222035003 65 173 4.0 10.0 0.00 0.00 0.00 83 1013.9
20240222034903 65 171 4.0 10.0 0.00 0.00 0.00 83 1014.0
20240222034704 65 166 5.0 10.0 0.00 0.00 0.00 83 1013.9
20240222034604 65 167 5.0 10.0 0.00 0.00 0.00 83 1013.9
20240222034504 65 166 5.0 10.0 0.00 0.00 0.00 83 1013.9
20240222034304 65 168 5.0 10.0 0.00 0.00 0.00 83 1014.0
20240222034104 65 167 5.0 10.0 0.00 0.00 0.00 83 1014.0
20240222034004 65 167 5.0 10.0 0.00 0.00 0.00 83 1014.0
20240222033903 66 168 5.0 10.0 0.00 0.00 0.00 83 1014.0
20240222033804 65 167 5.0 10.0 0.00 0.00 0.00 83 1014.1
20240222033703 66 167 4.0 10.0 0.00 0.00 0.00 83 1014.1
20240222033603 66 166 4.0 9.0 0.00 0.00 0.00 83 1014.1
20240222033503 65 167 4.0 9.0 0.00 0.00 0.00 83 1014.1
20240222033404 66 166 4.0 9.0 0.00 0.00 0.00 83 1014.0
20240222033304 66 165 4.0 9.0 0.00 0.00 0.00 83 1014.1
20240222033203 65 164 4.0 9.0 0.00 0.00 0.00 83 1014.0
20240222033104 65 166 4.0 9.0 0.00 0.00 0.00 83 1014.0
20240222033003 65 167 4.0 9.0 0.00 0.00 0.00 83 1014.0
20240222032903 65 165 4.0 9.0 0.00 0.00 0.00 83 1014.0
20240222032803 65 166 4.0 10.0 0.00 0.00 0.00 83 1013.9
20240222032704 65 162 4.0 11.0 0.00 0.00 0.00 83 1013.8
20240222032604 65 162 5.0 11.0 0.00 0.00 0.00 83 1013.9
20240222032503 66 160 5.0 11.0 0.00 0.00 0.00 83 1013.8
20240222032306 66 159 6.0 11.0 0.00 0.00 0.00 83 1013.7
20240222032203 66 158 6.0 15.0 0.00 0.00 0.00 83 1013.6
20240222032103 66 157 6.0 15.0 0.00 0.00 0.00 83 1013.6
20240222032003 66 155 6.0 15.0 0.00 0.00 0.00 82 1013.5
20240222031903 66 155 6.0 15.0 0.00 0.00 0.00 82 1013.3
20240222031803 66 156 6.0 15.0 0.00 0.00 0.00 82 1013.3
20240222031704 66 158 6.0 15.0 0.00 0.00 0.00 82 1013.2
20240222031605 66 159 6.0 15.0 0.00 0.00 0.00 82 1013.2
20240222031504 66 158 5.0 15.0 0.00 0.00 0.00 82 1013.1
20240222031404 66 161 5.0 15.0 0.00 0.00 0.00 82 1013.1
20240222031304 66 161 5.0 15.0 0.00 0.00 0.00 82 1013.1
20240222031203 66 162 5.0 13.0 0.00 0.00 0.00 82 1013.1
20240222031004 66 161 6.0 13.0 0.00 0.00 0.00 82 1013.1
20240222030903 66 162 6.0 13.0 0.00 0.00 0.00 82 1013.0
20240222030803 66 162 6.0 13.0 0.00 0.00 0.00 82 1013.1
20240222030703 66 161 7.0 15.0 0.00 0.00 0.00 82 1013.1
20240222030603 66 161 7.0 15.0 0.00 0.00 0.00 81 1013.1
20240222030503 66 160 7.0 15.0 0.00 0.00 0.00 81 1013.2
20240222030304 66 156 7.0 15.0 0.00 0.00 0.00 81 1013.2
20240222030204 66 156 7.0 15.0 0.00 0.00 0.00 81 1013.2
20240222030104 66 156 7.0 15.0 0.00 0.00 0.00 81 1013.2
20240222030004 66 155 7.0 15.0 0.00 0.00 0.00 81 1013.2
20240222025804 66 155 7.0 15.0 0.00 0.00 0.00 81 1013.2
20240222025703 66 155 7.0 15.0 0.00 0.00 0.00 81 1013.2
20240222025603 66 154 7.0 15.0 0.00 0.00 0.00 81 1013.3
20240222025503 66 155 7.0 15.0 0.00 0.00 0.00 81 1013.2
20240222025404 66 159 7.0 15.0 0.00 0.00 0.00 81 1013.2
20240222025305 66 159 7.0 15.0 0.00 0.00 0.00 80 1013.2
20240222025103 66 160 6.0 15.0 0.00 0.00 0.00 80 1013.2
20240222025003 67 161 6.0 15.0 0.00 0.00 0.00 80 1013.3
20240222024903 67 159 5.0 15.0 0.00 0.00 0.00 80 1013.2
20240222024803 67 159 4.0 13.0 0.00 0.00 0.00 80 1013.2
20240222024704 67 159 4.0 10.0 0.00 0.00 0.00 80 1013.3
20240222024504 67 159 4.0 10.0 0.00 0.00 0.00 80 1013.2
20240222024403 67 158 4.0 12.0 0.00 0.00 0.00 80 1013.2
20240222024303 67 159 4.0 12.0 0.00 0.00 0.00 80 1013.2
20240222024103 67 156 5.0 14.0 0.00 0.00 0.00 79 1013.2
20240222024003 67 155 6.0 15.0 0.00 0.00 0.00 79 1013.1
20240222023904 67 156 6.0 15.0 0.00 0.00 0.00 79 1013.1
20240222023804 67 156 7.0 15.0 0.00 0.00 0.00 79 1013.1
20240222023704 67 154 7.0 15.0 0.00 0.00 0.00 79 1013.0
20240222023604 67 155 8.0 15.0 0.00 0.00 0.00 79 1013.0
20240222023505 67 154 7.0 16.0 0.00 0.00 0.00 79 1013.0
20240222023404 67 153 7.0 16.0 0.00 0.00 0.00 79 1012.9
20240222023304 67 153 7.0 16.0 0.00 0.00 0.00 79 1012.9
20240222023204 67 154 8.0 16.0 0.00 0.00 0.00 79 1012.9
20240222023004 67 154 8.0 16.0 0.00 0.00 0.00 78 1012.7
20240222022904 67 153 8.0 16.0 0.00 0.00 0.00 78 1012.7
20240222022803 67 154 8.0 16.0 0.00 0.00 0.00 78 1012.7
20240222022703 67 155 7.0 16.0 0.00 0.00 0.00 78 1012.7
20240222022503 67 155 6.0 14.0 0.00 0.00 0.00 78 1012.7
20240222022404 67 155 7.0 14.0 0.00 0.00 0.00 78 1012.7
20240222022305 67 155 7.0 14.0 0.00 0.00 0.00 78 1012.7
20240222022204 67 155 6.0 14.0 0.00 0.00 0.00 78 1012.7
20240222022105 67 156 6.0 13.0 0.00 0.00 0.00 78 1012.7
20240222022004 67 154 6.0 13.0 0.00 0.00 0.00 78 1012.8
20240222021903 67 154 5.0 13.0 0.00 0.00 0.00 78 1012.8
20240222021803 68 154 5.0 13.0 0.00 0.00 0.00 78 1012.8
20240222021703 68 153 5.0 13.0 0.00 0.00 0.00 78 1012.8
20240222021603 68 153 5.0 13.0 0.00 0.00 0.00 77 1012.8
20240222021503 68 152 5.0 13.0 0.00 0.00 0.00 77 1012.8
20240222021304 68 149 5.0 13.0 0.00 0.00 0.00 77 1012.8
20240222021204 68 149 5.0 12.0 0.00 0.00 0.00 77 1012.9
20240222021104 68 149 4.0 12.0 0.00 0.00 0.00 77 1012.9
20240222021004 68 150 5.0 12.0 0.00 0.00 0.00 77 1012.8
20240222020903 68 151 5.0 12.0 0.00 0.00 0.00 77 1012.9
20240222020803 68 150 5.0 12.0 0.00 0.00 0.00 77 1012.9
20240222020704 68 150 5.0 12.0 0.00 0.00 0.00 77 1012.9
20240222020603 68 148 5.0 12.0 0.00 0.00 0.00 76 1013.0
20240222020503 68 148 5.0 12.0 0.00 0.00 0.00 76 1013.0
20240222020403 68 148 5.0 11.0 0.00 0.00 0.00 76 1013.0
20240222020304 68 150 5.0 11.0 0.00 0.00 0.00 76 1013.0
20240222020204 68 150 5.0 11.0 0.00 0.00 0.00 76 1013.0
20240222020103 68 150 6.0 11.0 0.00 0.00 0.00 76 1012.9
20240222020003 68 150 6.0 11.0 0.00 0.00 0.00 76 1012.9
20240222015904 68 150 6.0 11.0 0.00 0.00 0.00 76 1012.9
20240222015804 68 152 5.0 12.0 0.00 0.00 0.00 75 1012.9
20240222015703 68 152 5.0 12.0 0.00 0.00 0.00 75 1012.9
20240222015603 68 154 5.0 12.0 0.00 0.00 0.00 75 1012.9
20240222015503 68 154 5.0 12.0 0.00 0.00 0.00 74 1012.9
20240222015404 68 153 5.0 12.0 0.00 0.00 0.00 74 1012.9
20240222015306 68 153 6.0 12.0 0.00 0.00 0.00 74 1012.9
20240222015203 68 153 6.0 12.0 0.00 0.00 0.00 74 1012.9
20240222015104 69 153 6.0 12.0 0.00 0.00 0.00 74 1012.9